M I D A S
Marine Information and Data Acquisition System
Tripno 1875 of the Zeeleeuw from 2010-05-05 06:13:49 to 2010-05-05 14:26:35
Back to CruiseResearch ActivitiesStationsMapUnderway DataData graphs

EquipmentUnitsComment
TimeDGPSUTC
LatitudeDGPSDM.mWGS84
LongitudeDGPSDM.mWGS84
TemperatureSBE03/SBE38deg celciusITS90
ConductivitySBE21S/mITS90
SalinitySBE21 Practical Salinity Units
ChlorophylAChelsea fluorimeterg/lCalibrated in Aceton
Missing or incorrect values are displayed as -999
Sea surface data collected by the RV Zeeleeuw from 2010-05-05 06:17:15 to 2010-05-05 15:24:49
                                                                                    Next 1000 lines
Time Latitude Longitude Temperature Conductivity Salinity ChlorophylA
2010-05-05 06:17:25 51°13.662 2°55.954 14.2339 0.068076 0.419315 -1.000568
2010-05-05 06:17:30 51°13.662 2°55.95 14.2486 0.068076 0.419323 -1.035392
2010-05-05 06:17:35 51°13.663 2°55.946 14.2686 0.068076 0.419323 -1.035392
2010-05-05 06:17:41 51°13.664 2°55.94 14.2603 0.068076 0.419331 -1.000568
2010-05-05 06:17:46 51°13.666 2°55.934 14.2684 0.068076 0.419339 -1.000568
2010-05-05 06:17:52 51°13.668 2°55.925 14.2694 0.068076 0.419339 -1.000568
2010-05-05 06:17:58 51°13.67 2°55.916 14.2774 0.068076 0.419339 -1.035392
2010-05-05 06:18:04 51°13.672 2°55.907 14.2786 0.068076 0.419339 -1.035392
2010-05-05 06:18:09 51°13.673 2°55.898 14.2786 0.068076 0.419339 -1.000568
2010-05-05 06:18:14 51°13.675 2°55.89 14.28 0.068076 0.419339 -1.000568
2010-05-05 06:18:19 51°13.676 2°55.881 14.2823 0.068076 0.419339 -1.000568
2010-05-05 06:18:24 51°13.678 2°55.872 14.2843 0.068076 0.419339 -1.000568
2010-05-05 06:18:29 51°13.68 2°55.863 14.2915 0.068076 0.419339 -1.035392
2010-05-05 06:18:34 51°13.682 2°55.854 14.2926 0.068076 0.419339 -1.035392
2010-05-05 06:18:39 51°13.685 2°55.845 14.2903 0.068076 0.419347 -1.035392
2010-05-05 06:18:44 51°13.687 2°55.836 14.2923 0.068076 0.419355 -1.035392
2010-05-05 06:18:49 51°13.69 2°55.826 14.2947 0.068076 0.419355 -1.035392
2010-05-05 06:18:54 51°13.694 2°55.816 14.2951 0.068076 0.419355 -1.035392
2010-05-05 06:18:59 51°13.697 2°55.806 14.3001 0.068076 0.419363 -1.000568
2010-05-05 06:19:04 51°13.701 2°55.797 14.3056 0.068076 0.419371 -1.000568
2010-05-05 06:19:09 51°13.705 2°55.788 14.3026 0.068076 0.419371 -1.000568
2010-05-05 06:19:14 51°13.71 2°55.779 14.3021 0.068076 0.419379 -1.035392
2010-05-05 06:19:19 51°13.714 2°55.77 14.3013 0.068076 0.419379 -1.000568
2010-05-05 06:19:24 51°13.718 2°55.761 14.2892 0.068076 0.419379 -1.000568
2010-05-05 06:19:29 51°13.722 2°55.752 14.2918 0.068076 0.419379 -1.035392
2010-05-05 06:19:34 51°13.727 2°55.743 14.2887 0.068076 0.419387 -1.035392
2010-05-05 06:19:39 51°13.732 2°55.735 14.2989 0.068076 0.419395 -1.000568
2010-05-05 06:19:44 51°13.737 2°55.726 14.2997 0.068076 0.419395 -1.000568
2010-05-05 06:19:49 51°13.742 2°55.718 14.2988 0.068076 0.419395 -1.000568
2010-05-05 06:19:54 51°13.747 2°55.71 14.2975 0.068076 0.419395 -1.035392
2010-05-05 06:19:59 51°13.753 2°55.702 14.2984 0.068076 0.419402 -1.000568
2010-05-05 06:20:04 51°13.758 2°55.695 14.2996 0.068076 0.419402 -1.070216
2010-05-05 06:20:09 51°13.764 2°55.688 14.3001 0.067972 0.418746 -1.035392
2010-05-05 06:20:14 51°13.77 2°55.681 14.2971 0.068076 0.419418 -1.000568
2010-05-05 06:20:19 51°13.777 2°55.675 14.3097 0.068076 0.419418 -1.000568
2010-05-05 06:20:24 51°13.784 2°55.669 14.3056 0.068076 0.419426 -1.035392
2010-05-05 06:20:29 51°13.791 2°55.663 14.3079 0.068076 0.419426 -1.035392
2010-05-05 06:20:34 51°13.798 2°55.658 14.3076 0.067972 0.418754 -1.000568
2010-05-05 06:20:39 51°13.805 2°55.653 14.3075 0.067972 0.418762 -1.035392
2010-05-05 06:20:44 51°13.812 2°55.648 14.2991 0.068076 0.419426 -1.000568
2010-05-05 06:20:49 51°13.819 2°55.643 14.3012 0.068076 0.419426 -1.000568
2010-05-05 06:20:54 51°13.826 2°55.638 14.3037 0.068076 0.419434 -1.000568
2010-05-05 06:20:59 51°13.833 2°55.634 14.3076 0.068076 0.419434 -1.000568
2010-05-05 06:21:04 51°13.839 2°55.63 14.3087 0.067972 0.418778 -1.035392
2010-05-05 06:21:09 51°13.846 2°55.626 14.3134 0.067972 0.418785 -1.000568
2010-05-05 06:21:14 51°13.852 2°55.623 14.3168 0.068076 0.419442 -1.035392
2010-05-05 06:21:19 51°13.859 2°55.621 14.3181 0.067972 0.418778 -1.035392
2010-05-05 06:21:24 51°13.865 2°55.619 14.3146 0.067972 0.418778 -1.035392
2010-05-05 06:21:29 51°13.872 2°55.618 14.3143 0.068076 0.419442 -1.000568
2010-05-05 06:21:34 51°13.877 2°55.617 14.3157 0.068076 0.419442 -1.000568
2010-05-05 06:21:39 51°13.883 2°55.616 14.316 0.067972 0.418785 -1.000568
2010-05-05 06:21:44 51°13.889 2°55.617 14.3162 0.067972 0.418778 -1.035392
2010-05-05 06:21:49 51°13.894 2°55.617 14.3168 0.067972 0.418785 -1.000568
2010-05-05 06:21:54 51°13.899 2°55.619 14.317 0.067972 0.418785 -1.000568
2010-05-05 06:21:59 51°13.904 2°55.62 14.317 0.067972 0.418793 -1.035392
2010-05-05 06:22:04 51°13.908 2°55.622 14.3045 0.067972 0.418801 -1.070216
2010-05-05 06:22:09 51°13.912 2°55.625 14.3026 0.067972 0.418809 -1.035392
2010-05-05 06:22:13 51°13.915 2°55.626 14.3069 0.067972 0.418817 -1.000568
2010-05-05 06:22:18 51°13.919 2°55.628 14.3142 0.067972 0.418817 -1.000568
2010-05-05 06:22:24 51°13.923 2°55.631 14.3099 0.067972 0.418817 -1.035392
2010-05-05 06:22:29 51°13.926 2°55.634 14.3131 0.067972 0.418825 -1.035392
2010-05-05 06:22:34 51°13.929 2°55.635 14.3115 0.067972 0.418825 -1.035392
2010-05-05 06:22:39 51°13.931 2°55.637 14.3111 0.067972 0.418833 -1.000568
2010-05-05 06:22:44 51°13.933 2°55.638 14.3186 0.067972 0.418825 -1.035392
2010-05-05 06:22:49 51°13.934 2°55.64 14.3166 0.067972 0.418825 -1.035392
2010-05-05 06:22:54 51°13.935 2°55.641 14.3135 0.068076 0.419489 -1.035392
2010-05-05 06:22:59 51°13.935 2°55.641 14.3016 0.067972 0.418825 -1.035392
2010-05-05 06:23:04 51°13.935 2°55.642 14.3073 0.067972 0.418825 -0.965744
2010-05-05 06:23:09 51°13.935 2°55.642 14.3121 0.067972 0.418825 -1.035392
2010-05-05 06:23:14 51°13.935 2°55.642 14.3054 0.067972 0.418833 -1.000568
2010-05-05 06:23:19 51°13.935 2°55.642 14.3026 0.067972 0.418833 -1.000568
2010-05-05 06:23:24 51°13.935 2°55.641 14.3021 0.067972 0.418833 -1.000568
2010-05-05 06:23:29 51°13.934 2°55.64 14.31 0.067972 0.418833 -1.000568
2010-05-05 06:23:34 51°13.934 2°55.638 14.3141 0.067972 0.418841 -1.035392
2010-05-05 06:23:39 51°13.933 2°55.636 14.2845 0.067972 0.418841 -1.035392
2010-05-05 06:23:44 51°13.932 2°55.634 14.2857 0.067972 0.418849 -1.000568
2010-05-05 06:23:49 51°13.932 2°55.632 14.2829 0.067972 0.418849 -1.000568
2010-05-05 06:23:54 51°13.932 2°55.631 14.2653 0.067972 0.418849 -1.000568
2010-05-05 06:23:59 51°13.931 2°55.63 14.2561 0.067972 0.418857 -1.035392
2010-05-05 06:24:04 51°13.931 2°55.63 14.2729 0.067972 0.418857 -1.035392
2010-05-05 06:24:09 51°13.93 2°55.632 14.2605 0.067972 0.418857 -1.035392
2010-05-05 06:24:14 51°13.93 2°55.634 14.2672 0.067972 0.418864 -1.000568
2010-05-05 06:24:19 51°13.93 2°55.636 14.2922 0.067972 0.418864 -1.000568
2010-05-05 06:24:23 51°13.93 2°55.638 14.2996 0.067972 0.418864 -1.035392
2010-05-05 06:24:28 51°13.93 2°55.639 14.3237 0.067972 0.418872 -1.000568
2010-05-05 06:24:33 51°13.93 2°55.64 14.3333 0.067972 0.418872 -1.000568
2010-05-05 06:24:39 51°13.929 2°55.638 14.3076 0.067972 0.41888 -1.000568
2010-05-05 06:24:44 51°13.929 2°55.635 14.3047 0.067972 0.418864 -1.035392
2010-05-05 06:24:49 51°13.928 2°55.631 14.281 0.067972 0.418872 -0.965744
2010-05-05 06:24:54 51°13.928 2°55.627 14.2993 0.067972 0.418872 -0.965744
2010-05-05 06:24:59 51°13.928 2°55.624 14.2773 0.067972 0.418864 -1.035392
2010-05-05 06:25:03 51°13.929 2°55.62 14.2924 0.067972 0.418872 -1.035392
2010-05-05 06:25:08 51°13.929 2°55.617 14.298 0.067972 0.418872 -1.000568
2010-05-05 06:25:13 51°13.929 2°55.614 14.3016 0.067972 0.418888 -1.035392
2010-05-05 06:25:18 51°13.93 2°55.612 14.3036 0.067972 0.418896 -1.035392
2010-05-05 06:25:24 51°13.931 2°55.608 14.3022 0.067972 0.418896 -1.035392
2010-05-05 06:25:29 51°13.931 2°55.605 14.3051 0.067972 0.418904 -1.000568
2010-05-05 06:25:33 51°13.932 2°55.603 14.305 0.067972 0.418912 -1.000568
2010-05-05 06:25:38 51°13.933 2°55.6 14.3075 0.067972 0.41892 -1.035392
2010-05-05 06:25:43 51°13.934 2°55.597 14.3074 0.067972 0.41892 -1.000568
2010-05-05 06:25:47 51°13.934 2°55.595 14.3091 0.067972 0.41892 -1.000568
2010-05-05 06:25:52 51°13.935 2°55.592 14.301 0.067972 0.418928 -1.035392
2010-05-05 06:25:57 51°13.936 2°55.59 14.2996 0.067972 0.418928 -1.035392
2010-05-05 06:26:04 51°13.937 2°55.589 14.3067 0.067972 0.418928 -1.035392
2010-05-05 06:26:09 51°13.936 2°55.589 14.3123 0.067972 0.418928 -1.035392
2010-05-05 06:26:13 51°13.936 2°55.589 14.27 0.067972 0.418928 -1.000568
2010-05-05 06:26:18 51°13.935 2°55.59 14.3087 0.067972 0.418928 -1.000568
2010-05-05 06:26:24 51°13.933 2°55.591 14.3115 0.067972 0.418928 -1.035392
2010-05-05 06:26:29 51°13.932 2°55.592 14.3225 0.067972 0.418944 -1.000568
2010-05-05 06:26:34 51°13.93 2°55.593 14.3219 0.067972 0.418936 -1.035392
2010-05-05 06:26:39 51°13.929 2°55.594 14.3263 0.067972 0.418944 -0.965744
2010-05-05 06:26:44 51°13.928 2°55.595 14.3327 0.067972 0.418944 -1.000568
2010-05-05 06:26:49 51°13.928 2°55.596 14.3265 0.067972 0.418944 -1.000568
2010-05-05 06:26:54 51°13.927 2°55.596 14.3278 0.067972 0.418944 -1.000568
2010-05-05 06:26:58 51°13.927 2°55.596 14.3289 0.067972 0.418951 -1.000568
2010-05-05 06:27:04 51°13.927 2°55.596 14.3285 0.067972 0.418944 -1.035392
2010-05-05 06:27:09 51°13.927 2°55.595 14.328 0.067972 0.418944 -1.000568
2010-05-05 06:27:13 51°13.927 2°55.595 14.3286 0.067972 0.418944 -1.000568
2010-05-05 06:27:18 51°13.928 2°55.594 14.3285 0.067972 0.418944 -1.000568
2010-05-05 06:27:24 51°13.929 2°55.592 14.3378 0.067972 0.418944 -1.000568
2010-05-05 06:27:28 51°13.93 2°55.59 14.3347 0.067972 0.418959 -1.035392
2010-05-05 06:27:33 51°13.933 2°55.588 14.3135 0.067972 0.418967 -1.035392
2010-05-05 06:27:38 51°13.935 2°55.586 14.3033 0.067972 0.418967 -1.035392
2010-05-05 06:27:44 51°13.938 2°55.583 14.2965 0.067972 0.418959 -1.000568
2010-05-05 06:27:49 51°13.941 2°55.581 14.2985 0.067972 0.418959 -1.000568
2010-05-05 06:27:53 51°13.944 2°55.579 14.3144 0.067972 0.418959 -1.035392
2010-05-05 06:27:58 51°13.946 2°55.577 14.3186 0.067972 0.418959 -1.035392
2010-05-05 06:28:04 51°13.95 2°55.575 14.3222 0.067972 0.418967 -1.000568
2010-05-05 06:28:09 51°13.953 2°55.574 14.322 0.067972 0.418975 -1.035392
2010-05-05 06:28:13 51°13.955 2°55.572 14.3227 0.067972 0.418983 -1.035392
2010-05-05 06:28:18 51°13.958 2°55.571 14.3254 0.067972 0.418983 -1.035392
2010-05-05 06:28:23 51°13.961 2°55.57 14.3242 0.067972 0.418983 -1.035392
2010-05-05 06:28:28 51°13.963 2°55.569 14.3314 0.067972 0.418991 -1.000568
2010-05-05 06:28:33 51°13.966 2°55.568 14.3258 0.067972 0.418999 -1.035392
2010-05-05 06:28:37 51°13.968 2°55.567 14.3267 0.067972 0.418999 -1.000568
2010-05-05 06:28:42 51°13.97 2°55.566 14.3299 0.067972 0.418999 -1.000568
2010-05-05 06:28:47 51°13.973 2°55.565 14.3269 0.067972 0.418999 -1.000568
2010-05-05 06:28:52 51°13.975 2°55.565 14.3275 0.067972 0.419007 -1.000568
2010-05-05 06:28:57 51°13.977 2°55.564 14.3146 0.067972 0.419007 -1.000568
2010-05-05 06:29:02 51°13.978 2°55.564 14.3264 0.067972 0.419015 -1.035392
2010-05-05 06:29:07 51°13.979 2°55.564 14.331 0.067972 0.419015 -1.000568
2010-05-05 06:29:12 51°13.979 2°55.565 14.2756 0.067972 0.419015 -1.000568
2010-05-05 06:29:17 51°13.979 2°55.565 14.3242 0.067972 0.419015 -1.000568
2010-05-05 06:29:22 51°13.978 2°55.566 14.3406 0.067972 0.419023 -1.035392
2010-05-05 06:29:27 51°13.978 2°55.566 14.3436 0.067972 0.419023 -1.035392
2010-05-05 06:29:32 51°13.977 2°55.566 14.3472 0.067972 0.419023 -1.000568
2010-05-05 06:29:37 51°13.976 2°55.567 14.3464 0.067972 0.419038 -1.035392
2010-05-05 06:29:42 51°13.976 2°55.568 14.3455 0.067972 0.419031 -1.035392
2010-05-05 06:29:47 51°13.976 2°55.568 14.3414 0.067972 0.419031 -1.035392
2010-05-05 06:29:53 51°13.975 2°55.569 14.3403 0.067972 0.419038 -1.035392
2010-05-05 06:29:57 51°13.975 2°55.569 14.3407 0.067972 0.419038 -1.035392
2010-05-05 06:30:03 51°13.974 2°55.569 14.3419 0.067972 0.419038 -1.035392
2010-05-05 06:30:09 51°13.974 2°55.569 14.3322 0.067972 0.419046 -1.000568
2010-05-05 06:30:13 51°13.973 2°55.569 14.3349 0.067972 0.419046 -1.000568
2010-05-05 06:30:19 51°13.973 2°55.569 14.3382 0.067972 0.419046 -1.035392
2010-05-05 06:30:24 51°13.972 2°55.569 14.3371 0.067972 0.419046 -1.035392
2010-05-05 06:30:29 51°13.972 2°55.569 14.3395 0.067972 0.419046 -1.000568
2010-05-05 06:30:33 51°13.972 2°55.569 14.3382 0.067972 0.419054 -1.035392
2010-05-05 06:30:39 51°13.972 2°55.569 14.3336 0.067972 0.419062 -1.000568
2010-05-05 06:30:44 51°13.971 2°55.569 14.3317 0.067972 0.419062 -1.000568
2010-05-05 06:30:49 51°13.971 2°55.57 14.3304 0.067972 0.419062 -1.000568
2010-05-05 06:30:53 51°13.97 2°55.571 14.2878 0.067972 0.419062 -1.035392
2010-05-05 06:30:58 51°13.968 2°55.572 14.3407 0.067972 0.419062 -1.000568
2010-05-05 06:31:04 51°13.965 2°55.574 14.3411 0.067972 0.41907 -1.035392
2010-05-05 06:31:09 51°13.963 2°55.576 14.3441 0.067972 0.41907 -1.035392
2010-05-05 06:31:13 51°13.961 2°55.577 14.3303 0.067972 0.41907 -1.000568
2010-05-05 06:31:19 51°13.959 2°55.579 14.3409 0.067972 0.41907 -1.000568
2010-05-05 06:31:24 51°13.956 2°55.581 14.3405 0.067972 0.41907 -1.035392
2010-05-05 06:31:29 51°13.954 2°55.583 14.3411 0.067972 0.419078 -1.035392
2010-05-05 06:31:34 51°13.952 2°55.584 14.3505 0.067972 0.41907 -1.000568
2010-05-05 06:31:38 51°13.95 2°55.586 14.3481 0.067972 0.419078 -1.000568
2010-05-05 06:31:44 51°13.948 2°55.588 14.3502 0.067972 0.419078 -1.000568
2010-05-05 06:31:49 51°13.946 2°55.59 14.3316 0.067972 0.419078 -1.000568
2010-05-05 06:31:54 51°13.944 2°55.592 14.3438 0.067972 0.419086 -1.035392
2010-05-05 06:31:59 51°13.942 2°55.594 14.3431 0.067972 0.419086 -1.000568
2010-05-05 06:32:04 51°13.94 2°55.596 14.3474 0.067972 0.419086 -1.035392
2010-05-05 06:32:09 51°13.938 2°55.598 14.3425 0.067972 0.419086 -1.035392
2010-05-05 06:32:13 51°13.936 2°55.599 14.3415 0.067972 0.419094 -1.035392
2010-05-05 06:32:19 51°13.933 2°55.602 14.3454 0.067972 0.419102 -1.035392
2010-05-05 06:32:24 51°13.931 2°55.604 14.3476 0.067972 0.419102 -1.035392
2010-05-05 06:32:29 51°13.929 2°55.606 14.3484 0.067972 0.419094 -1.000568
2010-05-05 06:32:34 51°13.927 2°55.608 14.3539 0.067972 0.41911 -1.035392
2010-05-05 06:32:39 51°13.924 2°55.61 14.3559 0.067972 0.41911 -1.000568
2010-05-05 06:32:44 51°13.922 2°55.612 14.3576 0.067972 0.419102 -1.000568
2010-05-05 06:32:49 51°13.92 2°55.614 14.3599 0.067972 0.419102 -1.000568
2010-05-05 06:32:54 51°13.919 2°55.615 14.3646 0.067972 0.419118 -1.035392
2010-05-05 06:32:58 51°13.918 2°55.615 14.3645 0.067972 0.419118 -1.035392
2010-05-05 06:33:04 51°13.917 2°55.616 14.3636 0.067972 0.419118 -1.000568
2010-05-05 06:33:09 51°13.917 2°55.615 14.3542 0.067972 0.41911 -1.035392
2010-05-05 06:33:14 51°13.916 2°55.615 14.3521 0.067972 0.419118 -1.000568
2010-05-05 06:33:19 51°13.916 2°55.614 14.3495 0.067972 0.419118 -1.000568
2010-05-05 06:33:24 51°13.915 2°55.614 14.3492 0.067972 0.419118 -1.000568
2010-05-05 06:33:29 51°13.914 2°55.614 14.3554 0.067972 0.419125 -1.035392
2010-05-05 06:33:34 51°13.914 2°55.614 14.3512 0.067972 0.419125 -1.000568
2010-05-05 06:33:39 51°13.913 2°55.614 14.3537 0.067972 0.419125 -1.035392
2010-05-05 06:33:44 51°13.912 2°55.614 14.3593 0.067972 0.419133 -1.000568
2010-05-05 06:33:49 51°13.911 2°55.614 14.3568 0.067972 0.419141 -1.000568
2010-05-05 06:33:54 51°13.911 2°55.614 14.3477 0.067972 0.419141 -1.000568
2010-05-05 06:33:58 51°13.91 2°55.615 14.3486 0.067972 0.419149 -1.000568
2010-05-05 06:34:04 51°13.908 2°55.617 14.3353 0.067972 0.419157 -1.035392
2010-05-05 06:34:09 51°13.907 2°55.618 14.3509 0.067972 0.419149 -1.000568
2010-05-05 06:34:14 51°13.906 2°55.619 14.3587 0.067972 0.419157 -1.035392
2010-05-05 06:34:19 51°13.904 2°55.62 14.3595 0.067972 0.419157 -1.035392
2010-05-05 06:34:24 51°13.903 2°55.621 14.3587 0.067972 0.419149 -1.035392
2010-05-05 06:34:29 51°13.902 2°55.623 14.361 0.067972 0.419157 -1.035392
2010-05-05 06:34:33 51°13.901 2°55.624 14.3701 0.067972 0.419157 -1.000568
2010-05-05 06:34:39 51°13.899 2°55.627 14.3685 0.067972 0.419157 -1.000568
2010-05-05 06:34:44 51°13.899 2°55.629 14.3658 0.067972 0.419165 -1.035392
2010-05-05 06:34:49 51°13.898 2°55.63 14.3661 0.067972 0.419165 -1.035392
2010-05-05 06:34:53 51°13.897 2°55.631 14.3638 0.067972 0.419165 -1.035392
2010-05-05 06:34:59 51°13.897 2°55.633 14.3679 0.067972 0.419165 -1.035392
2010-05-05 06:35:04 51°13.896 2°55.633 14.3667 0.067972 0.419165 -1.070216
2010-05-05 06:35:09 51°13.896 2°55.633 14.3661 0.067972 0.419173 -1.000568
2010-05-05 06:35:13 51°13.896 2°55.632 14.3637 0.067972 0.419165 -1.035392
2010-05-05 06:35:19 51°13.896 2°55.631 14.3593 0.067972 0.419165 -1.035392
2010-05-05 06:35:24 51°13.897 2°55.629 14.3473 0.067972 0.419165 -1.000568
2010-05-05 06:35:29 51°13.897 2°55.628 14.3527 0.067972 0.419165 -1.035392
2010-05-05 06:35:33 51°13.898 2°55.626 14.3465 0.067972 0.419165 -1.070216
2010-05-05 06:35:39 51°13.899 2°55.623 14.3452 0.067972 0.419165 -1.000568
2010-05-05 06:35:44 51°13.9 2°55.62 14.3569 0.067972 0.419173 -1.035392
2010-05-05 06:35:49 51°13.902 2°55.617 14.3669 0.067972 0.419173 -1.035392
2010-05-05 06:35:54 51°13.904 2°55.614 14.3698 0.067972 0.419173 -1.000568
2010-05-05 06:35:59 51°13.906 2°55.611 14.3726 0.067972 0.419189 -1.035392
2010-05-05 06:36:04 51°13.909 2°55.608 14.3755 0.067972 0.419197 -1.000568
2010-05-05 06:36:09 51°13.912 2°55.605 14.3755 0.067972 0.419205 -1.035392
2010-05-05 06:36:14 51°13.915 2°55.601 14.377 0.067972 0.419213 -1.000568
2010-05-05 06:36:19 51°13.918 2°55.598 14.3773 0.067972 0.419213 -1.000568
2010-05-05 06:36:24 51°13.922 2°55.594 14.378 0.067972 0.419213 -1.000568
2010-05-05 06:36:29 51°13.926 2°55.59 14.3772 0.067972 0.41922 -1.000568
2010-05-05 06:36:34 51°13.931 2°55.587 14.375 0.067972 0.41922 -1.000568
2010-05-05 06:36:39 51°13.935 2°55.582 14.3752 0.067972 0.41922 -1.035392
2010-05-05 06:36:44 51°13.939 2°55.577 14.3747 0.067972 0.419228 -1.035392
2010-05-05 06:36:49 51°13.944 2°55.573 14.3773 0.067972 0.419228 -1.035392
2010-05-05 06:36:53 51°13.948 2°55.57 14.3768 0.067972 0.419228 -1.000568
2010-05-05 06:36:58 51°13.953 2°55.565 14.3697 0.067972 0.419236 -1.000568
2010-05-05 06:37:03 51°13.958 2°55.561 14.3768 0.067972 0.419236 -1.035392
2010-05-05 06:37:09 51°13.964 2°55.556 14.371 0.067972 0.419244 -1.000568
2010-05-05 06:37:13 51°13.968 2°55.553 14.3749 0.067972 0.419244 -1.070216
2010-05-05 06:37:19 51°13.974 2°55.548 14.3735 0.067972 0.419244 -0.965744
2010-05-05 06:37:24 51°13.979 2°55.544 14.3764 0.067972 0.419244 -0.965744
2010-05-05 06:37:29 51°13.984 2°55.54 14.3752 0.067972 0.419244 -1.035392
2010-05-05 06:37:34 51°13.989 2°55.536 14.3766 0.067972 0.419244 -1.000568
2010-05-05 06:37:39 51°13.994 2°55.532 14.3779 0.067972 0.419244 -0.965744
2010-05-05 06:37:44 51°13.999 2°55.529 14.3795 0.067972 0.419252 -1.035392
2010-05-05 06:37:49 51°14.004 2°55.525 14.3814 0.067972 0.419252 -1.035392
2010-05-05 06:37:54 51°14.009 2°55.521 14.3813 0.067972 0.419252 -1.035392
2010-05-05 06:37:58 51°14.013 2°55.518 14.382 0.067972 0.419252 -1.000568
2010-05-05 06:38:04 51°14.019 2°55.513 14.381 0.067972 0.41926 -1.035392
2010-05-05 06:38:09 51°14.023 2°55.509 14.3775 0.067972 0.41926 -1.000568
2010-05-05 06:38:13 51°14.027 2°55.506 14.3784 0.067972 0.41926 -1.035392
2010-05-05 06:38:18 51°14.032 2°55.502 14.3801 0.067972 0.41926 -1.035392
2010-05-05 06:38:23 51°14.037 2°55.498 14.3893 0.067972 0.419268 -1.000568
2010-05-05 06:38:28 51°14.042 2°55.494 14.3857 0.067972 0.419268 -1.035392
2010-05-05 06:38:33 51°14.047 2°55.49 14.3912 0.067972 0.41926 -1.035392
2010-05-05 06:38:38 51°14.051 2°55.486 14.3919 0.067972 0.419268 -1.035392
2010-05-05 06:38:43 51°14.056 2°55.482 14.392 0.067972 0.419276 -1.035392
2010-05-05 06:38:48 51°14.061 2°55.478 14.3954 0.067972 0.419276 -1.035392
2010-05-05 06:38:53 51°14.066 2°55.474 14.3957 0.067972 0.419276 -1.000568
2010-05-05 06:38:57 51°14.07 2°55.471 14.3934 0.067972 0.419284 -1.000568
2010-05-05 06:39:02 51°14.074 2°55.467 14.3965 0.067972 0.419276 -1.000568
2010-05-05 06:39:07 51°14.079 2°55.463 14.3912 0.067972 0.419276 -1.035392
2010-05-05 06:39:12 51°14.084 2°55.459 14.3911 0.067972 0.419292 -1.035392
2010-05-05 06:39:17 51°14.089 2°55.455 14.3928 0.067972 0.419292 -1.035392
2010-05-05 06:39:21 51°14.093 2°55.452 14.4052 0.067972 0.419292 -1.035392
2010-05-05 06:39:26 51°14.098 2°55.449 14.4002 0.067972 0.4193 -1.035392
2010-05-05 06:39:31 51°14.103 2°55.445 14.4071 0.067972 0.419292 -1.000568
2010-05-05 06:39:36 51°14.108 2°55.441 14.3956 0.067972 0.4193 -1.000568
2010-05-05 06:39:41 51°14.113 2°55.437 14.4055 0.067972 0.419308 -1.070216
2010-05-05 06:39:46 51°14.118 2°55.434 14.4053 0.067972 0.419308 -1.070216
2010-05-05 06:39:51 51°14.124 2°55.43 14.4068 0.067972 0.419308 -1.035392
2010-05-05 06:39:55 51°14.128 2°55.427 14.4042 0.067972 0.419308 -1.000568
2010-05-05 06:40:00 51°14.133 2°55.423 14.3922 0.067972 0.419308 -1.035392
2010-05-05 06:40:05 51°14.138 2°55.419 14.3968 0.067972 0.419308 -1.000568
2010-05-05 06:40:10 51°14.143 2°55.414 14.3799 0.067972 0.419316 -1.000568
2010-05-05 06:40:15 51°14.149 2°55.41 14.3885 0.067972 0.419316 -1.000568
2010-05-05 06:40:20 51°14.154 2°55.406 14.3923 0.067972 0.419316 -1.000568
2010-05-05 06:40:25 51°14.16 2°55.401 14.3992 0.067972 0.419316 -1.000568
2010-05-05 06:40:30 51°14.166 2°55.397 14.3974 0.067972 0.419323 -1.035392
2010-05-05 06:40:35 51°14.172 2°55.392 14.3991 0.067972 0.419323 -1.035392
2010-05-05 06:40:40 51°14.177 2°55.387 14.3876 0.067972 0.419323 -1.000568
2010-05-05 06:40:45 51°14.183 2°55.381 14.3769 0.067972 0.419323 -1.000568
2010-05-05 06:40:50 51°14.189 2°55.375 14.3698 0.067972 0.419323 -1.000568
2010-05-05 06:40:56 51°14.196 2°55.367 14.3924 0.067972 0.419331 -1.035392
2010-05-05 06:41:01 51°14.202 2°55.36 14.378 0.067972 0.419331 -1.035392
2010-05-05 06:41:05 51°14.207 2°55.355 14.3858 0.067972 0.419331 -1.000568
2010-05-05 06:41:11 51°14.214 2°55.346 14.3792 0.067972 0.419339 -1.035392
2010-05-05 06:41:16 51°14.22 2°55.339 14.3873 0.067972 0.419331 -1.035392
2010-05-05 06:41:21 51°14.227 2°55.332 14.3872 0.067972 0.419331 -1.035392
2010-05-05 06:41:25 51°14.232 2°55.326 14.389 0.067972 0.419339 -1.035392
2010-05-05 06:41:30 51°14.238 2°55.318 14.3811 0.067868 0.418674 -1.000568
2010-05-05 06:41:35 51°14.245 2°55.311 14.3822 0.067972 0.419347 -1.035392
2010-05-05 06:41:41 51°14.254 2°55.301 14.3687 0.067972 0.419339 -1.035392
2010-05-05 06:41:46 51°14.262 2°55.292 14.3634 0.067972 0.419339 -1.035392
2010-05-05 06:41:51 51°14.27 2°55.283 14.388 0.067972 0.419339 -1.000568
2010-05-05 06:41:56 51°14.279 2°55.272 14.3679 0.067972 0.419347 -1.035392
2010-05-05 06:42:01 51°14.288 2°55.262 14.3736 0.067868 0.418682 -1.000568
2010-05-05 06:42:06 51°14.298 2°55.252 14.3747 0.067972 0.419339 -1.035392
2010-05-05 06:42:11 51°14.308 2°55.241 14.3521 0.067868 0.418682 -1.035392
2010-05-05 06:42:16 51°14.319 2°55.23 14.3593 0.067868 0.418682 -1.035392
2010-05-05 06:42:21 51°14.33 2°55.218 14.3439 0.067868 0.41869 -1.000568
2010-05-05 06:42:25 51°14.339 2°55.209 14.317 0.067972 0.419355 -1.000568
2010-05-05 06:42:30 51°14.35 2°55.197 14.318 0.067972 0.419363 -1.035392
2010-05-05 06:42:35 51°14.362 2°55.185 14.3616 0.067868 0.418706 -1.035392
2010-05-05 06:42:40 51°14.374 2°55.172 14.3267 0.067972 0.419379 -1.000568
2010-05-05 06:42:45 51°14.386 2°55.159 14.3347 0.067972 0.419379 -1.000568
2010-05-05 06:42:49 51°14.396 2°55.148 14.3189 0.067972 0.419379 -1.000568
2010-05-05 06:42:55 51°14.412 2°55.132 14.3562 0.067972 0.419379 -1.035392
2010-05-05 06:43:00 51°14.425 2°55.12 14.3386 0.067972 0.419371 -0.965744
2010-05-05 06:43:05 51°14.438 2°55.106 14.3602 0.067868 0.418721 -1.000568
2010-05-05 06:43:10 51°14.451 2°55.092 14.3664 0.067868 0.418714 -1.000568
2010-05-05 06:43:15 51°14.464 2°55.078 14.3524 0.067868 0.418714 -1.000568
2010-05-05 06:43:20 51°14.478 2°55.062 14.3117 0.067972 0.419387 -1.035392
2010-05-05 06:43:25 51°14.491 2°55.046 14.3387 0.067868 0.418729 -1.035392
2010-05-05 06:43:30 51°14.505 2°55.03 14.3118 0.067972 0.419387 -1.035392
2010-05-05 06:43:35 51°14.519 2°55.013 14.3115 0.067868 0.418729 -1.000568
2010-05-05 06:43:40 51°14.533 2°54.998 14.2771 0.067868 0.418721 -1.035392
2010-05-05 06:43:45 51°14.548 2°54.982 14.3339 0.067868 0.418721 -1.035392
2010-05-05 06:43:50 51°14.564 2°54.967 14.3398 0.067868 0.418737 -1.035392
2010-05-05 06:43:55 51°14.58 2°54.951 14.3165 0.067868 0.418737 -1.000568
2010-05-05 06:44:00 51°14.596 2°54.935 14.3276 0.067868 0.418745 -1.000568
2010-05-05 06:44:05 51°14.612 2°54.92 14.3116 0.067868 0.418745 -1.000568
2010-05-05 06:44:10 51°14.628 2°54.904 14.3352 0.067868 0.418745 -1.000568
2010-05-05 06:44:15 51°14.645 2°54.889 14.345 0.067868 0.418745 -1.000568
2010-05-05 06:44:21 51°14.664 2°54.871 14.3256 0.067868 0.418745 -1.035392
2010-05-05 06:44:25 51°14.678 2°54.858 14.345 0.067868 0.418753 -1.000568
2010-05-05 06:44:30 51°14.694 2°54.843 14.3362 0.067868 0.418761 -1.035392
2010-05-05 06:44:35 51°14.71 2°54.827 14.3376 0.067972 0.419427 -1.000568
2010-05-05 06:44:41 51°14.73 2°54.807 14.3361 0.067868 0.418761 -1.035392
2010-05-05 06:44:45 51°14.742 2°54.794 14.3679 0.067868 0.418769 -1.000568
2010-05-05 06:44:50 51°14.759 2°54.778 14.3381 0.067868 0.418769 -1.000568
2010-05-05 06:44:55 51°14.774 2°54.761 14.3344 0.067868 0.418777 -1.000568
2010-05-05 06:45:00 51°14.79 2°54.745 14.3229 0.067868 0.418769 -1.000568
2010-05-05 06:45:05 51°14.805 2°54.727 14.3374 0.067868 0.418777 -0.965744
2010-05-05 06:45:09 51°14.818 2°54.714 14.3132 0.067868 0.418769 -1.035392
2010-05-05 06:45:15 51°14.836 2°54.694 14.338 0.067868 0.418769 -1.035392
2010-05-05 06:45:20 51°14.852 2°54.677 14.3432 0.067868 0.418785 -0.965744
2010-05-05 06:45:25 51°14.868 2°54.66 14.3491 0.067868 0.418777 -1.035392
2010-05-05 06:45:30 51°14.884 2°54.644 14.3477 0.067868 0.418777 -1.070216
2010-05-05 06:45:36 51°14.903 2°54.624 14.3255 0.067868 0.418785 -1.035392
2010-05-05 06:45:41 51°14.918 2°54.607 14.3401 0.067868 0.418801 -1.035392
2010-05-05 06:45:46 51°14.934 2°54.59 14.354 0.067868 0.418801 -1.035392
2010-05-05 06:45:51 51°14.949 2°54.574 14.355 0.067868 0.418793 -1.000568
2010-05-05 06:45:56 51°14.965 2°54.557 14.3265 0.067868 0.418793 -1.000568
2010-05-05 06:46:01 51°14.98 2°54.54 14.3333 0.067868 0.418801 -1.035392
2010-05-05 06:46:05 51°14.992 2°54.527 14.3577 0.067868 0.418801 -1.000568
2010-05-05 06:46:10 51°15.007 2°54.51 14.3431 0.067972 0.419474 -1.035392
2010-05-05 06:46:16 51°15.026 2°54.49 14.3435 0.067868 0.418801 -1.000568
2010-05-05 06:46:21 51°15.042 2°54.473 14.3285 0.067868 0.418801 -1.000568
2010-05-05 06:46:25 51°15.055 2°54.461 14.3575 0.067868 0.418809 -1.000568
2010-05-05 06:46:29 51°15.068 2°54.448 14.3267 0.067868 0.418801 -1.000568
2010-05-05 06:46:35 51°15.087 2°54.428 14.3524 0.067868 0.418809 -1.035392
2010-05-05 06:46:40 51°15.102 2°54.411 14.3355 0.067868 0.418824 -1.035392
2010-05-05 06:46:45 51°15.117 2°54.394 14.333 0.067868 0.418816 -1.000568
2010-05-05 06:46:50 51°15.133 2°54.376 14.3632 0.067868 0.418816 -1.000568
2010-05-05 06:46:55 51°15.147 2°54.357 14.3478 0.067868 0.418816 -1.035392
2010-05-05 06:47:00 51°15.162 2°54.339 14.3504 0.067868 0.41884 -1.000568
2010-05-05 06:47:05 51°15.177 2°54.321 14.3661 0.067868 0.418832 -1.000568
2010-05-05 06:47:09 51°15.189 2°54.306 14.3513 0.067868 0.41884 -1.035392
2010-05-05 06:47:15 51°15.206 2°54.283 14.3448 0.067868 0.41884 -1.035392
2010-05-05 06:47:20 51°15.221 2°54.264 14.3567 0.067868 0.418832 -1.000568
2010-05-05 06:47:25 51°15.236 2°54.246 14.3612 0.067868 0.418848 -1.035392
2010-05-05 06:47:30 51°15.25 2°54.227 14.3636 0.067868 0.418848 -1.035392
2010-05-05 06:47:35 51°15.266 2°54.209 14.3424 0.067972 0.41949 -1.035392
2010-05-05 06:47:41 51°15.283 2°54.187 14.3538 0.067868 0.418848 -1.035392
2010-05-05 06:47:45 51°15.296 2°54.173 14.3589 0.067868 0.418848 -1.035392
2010-05-05 06:47:50 51°15.311 2°54.155 14.3588 0.067868 0.418856 -1.035392
2010-05-05 06:47:56 51°15.329 2°54.134 14.3565 0.067868 0.418864 -1.035392
2010-05-05 06:48:01 51°15.344 2°54.117 14.3394 0.067868 0.418856 -1.000568
2010-05-05 06:48:05 51°15.357 2°54.102 14.3524 0.067868 0.418848 -1.035392
2010-05-05 06:48:10 51°15.372 2°54.085 14.343 0.067868 0.418864 -1.035392
2010-05-05 06:48:15 51°15.387 2°54.067 14.3654 0.067868 0.418872 -1.035392
2010-05-05 06:48:20 51°15.402 2°54.049 14.36 0.067868 0.418872 -1.035392
2010-05-05 06:48:25 51°15.418 2°54.031 14.3663 0.067868 0.418872 -1.000568
2010-05-05 06:48:30 51°15.433 2°54.014 14.3425 0.067868 0.418872 -1.000568
2010-05-05 06:48:35 51°15.449 2°53.996 14.3618 0.067868 0.418864 -1.035392
2010-05-05 06:48:40 51°15.464 2°53.978 14.3713 0.067868 0.41888 -1.035392
2010-05-05 06:48:45 51°15.479 2°53.961 14.35 0.067868 0.41888 -1.035392
2010-05-05 06:48:50 51°15.494 2°53.943 14.3719 0.067868 0.41888 -1.035392
2010-05-05 06:48:55 51°15.509 2°53.925 14.3525 0.067868 0.41888 -1.000568
2010-05-05 06:49:01 51°15.527 2°53.903 14.371 0.067868 0.418904 -1.035392
2010-05-05 06:49:05 51°15.54 2°53.89 14.3724 0.067868 0.418888 -1.000568
2010-05-05 06:49:10 51°15.555 2°53.871 14.359 0.067868 0.418904 -1.000568
2010-05-05 06:49:15 51°15.57 2°53.854 14.3633 0.067868 0.418904 -1.000568
2010-05-05 06:49:20 51°15.585 2°53.835 14.3698 0.067868 0.418904 -1.000568
2010-05-05 06:49:25 51°15.6 2°53.817 14.377 0.067868 0.418896 -1.035392
2010-05-05 06:49:30 51°15.614 2°53.798 14.3576 0.067868 0.418919 -1.035392
2010-05-05 06:49:35 51°15.629 2°53.779 14.3535 0.067868 0.418904 -1.000568
2010-05-05 06:49:40 51°15.643 2°53.76 14.3728 0.067868 0.418927 -1.035392
2010-05-05 06:49:45 51°15.658 2°53.741 14.3726 0.067868 0.418927 -1.035392
2010-05-05 06:49:50 51°15.672 2°53.721 14.3677 0.067868 0.418927 -1.000568
2010-05-05 06:49:55 51°15.687 2°53.702 14.3799 0.067868 0.418927 -1.035392
2010-05-05 06:50:00 51°15.701 2°53.682 14.3823 0.067868 0.418911 -1.000568
2010-05-05 06:50:05 51°15.716 2°53.663 14.3736 0.067868 0.418919 -1.070216
2010-05-05 06:50:10 51°15.73 2°53.644 14.3763 0.067868 0.418919 -1.000568
2010-05-05 06:50:15 51°15.745 2°53.625 14.382 0.067868 0.418919 -1.000568
2010-05-05 06:50:21 51°15.762 2°53.603 14.3784 0.067868 0.418919 -1.000568
2010-05-05 06:50:25 51°15.774 2°53.588 14.3856 0.067868 0.418919 -1.035392
2010-05-05 06:50:30 51°15.789 2°53.57 14.3773 0.067868 0.418951 -1.000568
2010-05-05 06:50:35 51°15.804 2°53.552 14.3727 0.067868 0.418935 -1.000568
2010-05-05 06:50:41 51°15.822 2°53.531 14.3783 0.067868 0.418935 -1.035392
2010-05-05 06:50:45 51°15.834 2°53.517 14.3791 0.067868 0.418935 -1.035392
2010-05-05 06:50:50 51°15.85 2°53.5 14.3887 0.067868 0.418943 -1.000568
2010-05-05 06:50:55 51°15.866 2°53.483 14.3887 0.067868 0.418951 -1.035392
2010-05-05 06:51:01 51°15.885 2°53.464 14.3829 0.067868 0.418959 -1.000568
2010-05-05 06:51:05 51°15.897 2°53.451 14.3903 0.067868 0.418959 -1.035392
2010-05-05 06:51:09 51°15.91 2°53.439 14.3811 0.067868 0.418943 -1.000568
2010-05-05 06:51:15 51°15.929 2°53.42 14.382 0.067868 0.418943 -1.000568
2010-05-05 06:51:20 51°15.946 2°53.405 14.3929 0.067868 0.418959 -1.035392
2010-05-05 06:51:25 51°15.962 2°53.39 14.3803 0.067868 0.418967 -1.035392
2010-05-05 06:51:30 51°15.978 2°53.375 14.3887 0.067868 0.418975 -1.035392
2010-05-05 06:51:35 51°15.995 2°53.361 14.3848 0.067868 0.418967 -1.035392
2010-05-05 06:51:40 51°16.011 2°53.346 14.3957 0.067868 0.418967 -1.035392
2010-05-05 06:51:45 51°16.028 2°53.332 14.3769 0.067868 0.418975 -1.000568
2010-05-05 06:51:49 51°16.041 2°53.32 14.3855 0.067868 0.418975 -1.000568
2010-05-05 06:51:55 51°16.061 2°53.303 14.3869 0.067868 0.418983 -1.035392
2010-05-05 06:52:00 51°16.077 2°53.289 14.4059 0.067868 0.418975 -1.000568
2010-05-05 06:52:05 51°16.094 2°53.275 14.3957 0.067868 0.418983 -1.035392
2010-05-05 06:52:10 51°16.11 2°53.261 14.3925 0.067868 0.418991 -1.035392
2010-05-05 06:52:15 51°16.127 2°53.247 14.4036 0.067868 0.418991 -1.035392
2010-05-05 06:52:21 51°16.146 2°53.23 14.3904 0.067868 0.418991 -1.000568
2010-05-05 06:52:25 51°16.16 2°53.219 14.3906 0.067868 0.418999 -1.035392
2010-05-05 06:52:29 51°16.173 2°53.208 14.39 0.067868 0.419007 -1.035392
2010-05-05 06:52:35 51°16.193 2°53.191 14.3884 0.067868 0.418991 -1.000568
2010-05-05 06:52:40 51°16.209 2°53.177 14.4015 0.067868 0.419022 -1.000568
2010-05-05 06:52:45 51°16.226 2°53.163 14.4131 0.067868 0.419007 -1.035392
2010-05-05 06:53:43 51°16.422 2°53.008 14.395 0.067868 0.419022 -1.000568
2010-05-05 06:53:48 51°16.44 2°52.997 14.4136 0.067868 0.41903 -1.035392
2010-05-05 06:54:09 51°16.516 2°52.956 14.4101 0.067868 0.419046 -1.035392
2010-05-05 06:54:32 51°16.6 2°52.914 14.4053 0.06766 0.41861 -0.199615
2010-05-05 06:54:33 51°16.604 2°52.912 14.4053 0.06766 0.41861 -0.199615
2010-05-05 06:54:59 51°16.7 2°52.875 14.4183 2.727491 22.432725 1.680884
2010-05-05 06:55:17 51°16.767 2°52.851 14.4245 3.321327 28.796807 1.506764
2010-05-05 06:56:39 51°17.076 2°52.739 11.6382 3.409666 30.313919 1.437116
2010-05-05 06:56:45 51°17.098 2°52.73 11.0307 3.405661 30.329196 1.506764
2010-05-05 06:56:49 51°17.113 2°52.724 10.8365 3.405029 30.330311 1.541588
2010-05-05 06:56:54 51°17.132 2°52.716 10.613 3.406083 30.35144 1.611236
2010-05-05 06:56:59 51°17.151 2°52.709 10.5511 3.405135 30.347426 1.576412
2010-05-05 06:57:05 51°17.174 2°52.7 10.4798 3.404397 30.345495 1.611236
2010-05-05 06:57:09 51°17.189 2°52.694 10.4641 3.40387 30.351682 1.64606
2010-05-05 06:57:14 51°17.208 2°52.686 10.4521 3.40387 30.351682 1.64606
2010-05-05 06:57:19 51°17.227 2°52.679 10.4271 3.40524 30.371942 1.64606
2010-05-05 06:57:24 51°17.246 2°52.672 10.4437 3.40777 30.403012 1.64606
2010-05-05 06:57:29 51°17.265 2°52.665 10.4045 3.403765 30.368086 1.64606
2010-05-05 06:57:34 51°17.283 2°52.658 10.4196 3.406927 30.402062 1.611236
2010-05-05 06:57:39 51°17.302 2°52.65 10.389 3.406927 30.404079 1.611236
2010-05-05 06:57:44 51°17.321 2°52.643 10.3805 3.406927 30.404079 1.611236
2010-05-05 06:57:49 51°17.34 2°52.635 10.386 3.404081 30.37323 1.64606
2010-05-05 06:57:54 51°17.358 2°52.629 10.3919 3.408297 30.416968 1.611236
2010-05-05 06:57:59 51°17.377 2°52.621 10.3725 3.409246 30.431067 1.611236
2010-05-05 06:58:04 51°17.396 2°52.613 10.3753 3.407349 30.414305 1.611236
2010-05-05 06:58:09 51°17.414 2°52.606 10.3814 3.4103 30.44891 1.64606
2010-05-05 06:58:14 51°17.433 2°52.598 10.3914 3.4103 30.44891 1.64606
2010-05-05 06:58:19 51°17.451 2°52.591 10.4005 3.401762 30.363715 1.611236
2010-05-05 06:58:25 51°17.474 2°52.582 10.4025 3.410195 30.447866 1.611236
2010-05-05 06:58:29 51°17.489 2°52.576 10.3964 3.41146 30.457695 1.576412
2010-05-05 06:58:34 51°17.507 2°52.569 10.4014 3.409246 30.43376 1.64606
2010-05-05 06:58:39 51°17.526 2°52.562 10.3962 3.409246 30.43376 1.64606
2010-05-05 06:58:44 51°17.544 2°52.554 10.3961 3.414833 30.4857 1.64606
2010-05-05 06:58:49 51°17.563 2°52.547 10.4001 3.411776 30.453416 1.611236
2010-05-05 06:58:54 51°17.582 2°52.541 10.4135 3.417258 30.507681 1.611236
2010-05-05 06:58:59 51°17.601 2°52.534 10.4244 3.420525 30.539362 1.64606
2010-05-05 06:59:05 51°17.623 2°52.531 10.4298 3.421053 30.545932 1.680884
2010-05-05 06:59:09 51°17.639 2°52.529 10.4406 3.421053 30.545932 1.680884
2010-05-05 06:59:14 51°17.658 2°52.529 10.4465 3.415149 30.486808 1.715708
2010-05-05 06:59:19 51°17.678 2°52.529 10.4495 3.419682 30.531687 1.750532
2010-05-05 06:59:24 51°17.697 2°52.53 10.4636 3.421369 30.54974 1.750532
2010-05-05 06:59:29 51°17.716 2°52.532 10.4685 3.422845 30.562327 1.750532
2010-05-05 06:59:34 51°17.735 2°52.535 10.4751 3.412092 30.451832 1.750532
2010-05-05 06:59:39 51°17.754 2°52.538 10.4809 3.412092 30.451832 1.750532
2010-05-05 06:59:44 51°17.774 2°52.541 10.4801 3.409141 30.415225 1.680884
2010-05-05 06:59:49 51°17.793 2°52.545 10.4819 3.409351 30.409916 1.680884
2010-05-05 06:59:54 51°17.812 2°52.549 10.481 3.414306 30.452196 1.680884
2010-05-05 06:59:59 51°17.831 2°52.554 10.4825 3.411459 30.417998 1.680884
2010-05-05 07:00:04 51°17.851 2°52.558 10.4781 3.408297 30.380692 1.64606
2010-05-05 07:00:09 51°17.87 2°52.562 10.4845 3.403026 30.322576 1.611236
2010-05-05 07:00:14 51°17.889 2°52.566 10.4875 3.403026 30.322576 1.611236
2010-05-05 07:00:19 51°17.909 2°52.571 10.4879 3.405134 30.337378 1.64606
2010-05-05 07:00:24 51°17.928 2°52.574 10.4828 3.407348 30.353218 1.576412
2010-05-05 07:00:29 51°17.948 2°52.579 10.4802 3.402815 30.30778 1.576412
2010-05-05 07:00:34 51°17.967 2°52.584 10.4864 3.401656 30.294323 1.541588
2010-05-05 07:00:39 51°17.986 2°52.591 10.4794 3.401656 30.294323 1.541588
2010-05-05 07:00:44 51°18.005 2°52.598 10.4832 3.406399 30.340499 1.541588
2010-05-05 07:00:49 51°18.024 2°52.606 10.4819 3.40661 30.341911 1.541588
2010-05-05 07:00:54 51°18.043 2°52.615 10.4851 3.406294 30.33678 1.506764
2010-05-05 07:00:59 51°18.061 2°52.625 10.477 3.405029 30.324289 1.541588
2010-05-05 07:01:04 51°18.08 2°52.635 10.4787 3.404923 30.323917 1.506764
2010-05-05 07:01:09 51°18.098 2°52.646 10.4787 3.404923 30.323917 1.506764
2010-05-05 07:01:14 51°18.116 2°52.659 10.4797 3.405661 30.330534 1.541588
2010-05-05 07:01:19 51°18.134 2°52.671 10.4835 3.397966 30.254557 1.541588
2010-05-05 07:01:25 51°18.155 2°52.688 10.4811 3.39881 30.264218 1.541588
2010-05-05 07:01:29 51°18.17 2°52.698 10.4815 3.409245 30.36727 1.541588
2010-05-05 07:01:34 51°18.187 2°52.713 10.4779 3.408297 30.359239 1.541588
2010-05-05 07:01:39 51°18.205 2°52.726 10.4798 3.408297 30.359239 1.541588
2010-05-05 07:01:44 51°18.222 2°52.742 10.4781 3.405661 30.333881 1.541588
2010-05-05 07:01:49 51°18.24 2°52.756 10.4804 3.410089 30.37627 1.506764
2010-05-05 07:01:54 51°18.257 2°52.771 10.4791 3.404818 30.326221 1.541588
2010-05-05 07:01:59 51°18.274 2°52.786 10.4816 3.40914 30.367569 1.611236
2010-05-05 07:02:04 51°18.292 2°52.801 10.4792 3.394277 30.220807 1.576412
2010-05-05 07:02:09 51°18.309 2°52.815 10.4774 3.389744 30.178733 1.541588
2010-05-05 07:02:14 51°18.327 2°52.828 10.4805 3.389744 30.178733 1.541588
2010-05-05 07:02:19 51°18.345 2°52.84 10.4724 3.391009 30.190552 1.541588
2010-05-05 07:02:24 51°18.363 2°52.851 10.4702 3.405029 30.330981 1.541588
2010-05-05 07:02:29 51°18.382 2°52.86 10.4759 3.405029 30.33165 1.541588
2010-05-05 07:02:34 51°18.4 2°52.869 10.4708 3.410194 30.382004 1.576412
2010-05-05 07:02:39 51°18.419 2°52.877 10.4709 3.410194 30.382004 1.576412
2010-05-05 07:02:44 51°18.438 2°52.885 10.4729 3.410089 30.382303 1.541588
2010-05-05 07:02:49 51°18.456 2°52.892 10.473 3.389744 30.181397 1.576412
2010-05-05 07:02:54 51°18.475 2°52.899 10.4746 3.391853 30.202208 1.541588
2010-05-05 07:02:59 51°18.494 2°52.905 10.4737 3.410932 30.392647 1.576412
2010-05-05 07:03:04 51°18.513 2°52.911 10.4736 3.406083 30.34675 1.576412
2010-05-05 07:03:09 51°18.532 2°52.916 10.4761 3.406083 30.34675 1.576412
2010-05-05 07:03:14 51°18.551 2°52.922 10.4734 3.413146 30.417207 1.576412
2010-05-05 07:03:19 51°18.57 2°52.927 10.4713 3.414622 30.431792 1.611236
2010-05-05 07:03:24 51°18.589 2°52.932 10.4767 3.412197 30.407831 1.611236
2010-05-05 07:03:29 51°18.609 2°52.936 10.478 3.412408 30.410586 1.611236
2010-05-05 07:03:34 51°18.628 2°52.94 10.4809 3.413989 30.426213 1.576412
2010-05-05 07:03:39 51°18.647 2°52.943 10.4784 3.408613 30.373757 1.611236
2010-05-05 07:03:44 51°18.666 2°52.946 10.4865 3.408613 30.373757 1.611236
2010-05-05 07:03:49 51°18.686 2°52.949 10.4829 3.4142 30.427625 1.611236
2010-05-05 07:03:54 51°18.705 2°52.952 10.48 3.411459 30.401211 1.64606
2010-05-05 07:03:59 51°18.724 2°52.954 10.4856 3.4142 30.426953 1.64606
2010-05-05 07:04:04 51°18.744 2°52.957 10.4827 3.414832 30.433204 1.64606
2010-05-05 07:04:09 51°18.763 2°52.959 10.4878 3.414832 30.433204 1.64606
2010-05-05 07:04:14 51°18.782 2°52.962 10.4897 3.409667 30.379479 1.64606
2010-05-05 07:04:19 51°18.802 2°52.965 10.4905 3.411881 30.401351 1.64606
2010-05-05 07:04:24 51°18.821 2°52.968 10.4882 3.412197 30.403804 1.64606
2010-05-05 07:04:29 51°18.841 2°52.971 10.4884 3.409983 30.381262 1.680884
2010-05-05 07:04:34 51°18.86 2°52.974 10.4874 3.413251 30.412878 1.680884
2010-05-05 07:04:39 51°18.88 2°52.976 10.4835 3.413251 30.412878 1.680884
2010-05-05 07:04:44 51°18.899 2°52.979 10.4859 3.410721 30.387211 1.680884
2010-05-05 07:04:49 51°18.918 2°52.982 10.4863 3.414727 30.424775 1.680884
2010-05-05 07:04:54 51°18.938 2°52.985 10.4835 3.410721 30.381847 1.715708
2010-05-05 07:04:59 51°18.957 2°52.987 10.4826 3.409562 30.371734 1.715708
2010-05-05 07:05:04 51°18.977 2°52.99 10.4806 3.414938 30.424843 1.715708
2010-05-05 07:05:09 51°18.996 2°52.992 10.4806 3.414938 30.424843 1.715708
2010-05-05 07:05:14 51°19.015 2°52.995 10.4818 3.416835 30.443591 1.750532
2010-05-05 07:05:19 51°19.035 2°52.998 10.483 3.415254 30.427968 1.785356
2010-05-05 07:05:24 51°19.054 2°53.001 10.4802 3.413884 30.413087 1.785356
2010-05-05 07:05:29 51°19.074 2°53.004 10.479 3.414832 30.424473 1.82018
2010-05-05 07:05:34 51°19.093 2°53.007 10.4749 3.413357 30.408551 1.785356
2010-05-05 07:05:39 51°19.113 2°53.01 10.4737 3.413357 30.408551 1.785356
2010-05-05 07:05:44 51°19.132 2°53.013 10.4735 3.412513 30.404245 1.82018
2010-05-05 07:05:49 51°19.152 2°53.016 10.4702 3.413357 30.412577 1.785356
2010-05-05 07:05:54 51°19.171 2°53.018 10.4713 3.407348 30.354557 1.855004
2010-05-05 07:05:59 51°19.191 2°53.021 10.468 3.412408 30.403874 1.855004
2010-05-05 07:06:04 51°19.21 2°53.024 10.4677 3.401972 30.300789 1.889828
2010-05-05 07:06:09 51°19.229 2°53.027 10.4669 3.401972 30.300789 1.889828
2010-05-05 07:06:14 51°19.249 2°53.03 10.4621 3.409456 30.376725 1.889828
2010-05-05 07:06:19 51°19.268 2°53.032 10.4642 3.403764 30.321833 1.889828
2010-05-05 07:06:24 51°19.288 2°53.035 10.46 3.413567 30.420702 1.889828
2010-05-05 07:06:29 51°19.307 2°53.038 10.4524 3.412724 30.413711 1.889828
2010-05-05 07:06:34 51°19.326 2°53.041 10.4536 3.407243 30.361557 1.82018
2010-05-05 07:06:39 51°19.346 2°53.044 10.4537 3.407243 30.361557 1.82018
2010-05-05 07:06:44 51°19.365 2°53.047 10.4537 3.413146 30.421236 1.855004
2010-05-05 07:06:49 51°19.385 2°53.05 10.4547 3.405767 30.349656 1.82018
2010-05-05 07:06:54 51°19.404 2°53.054 10.4531 3.411459 30.407252 1.855004
2010-05-05 07:06:59 51°19.424 2°53.057 10.4493 3.413989 30.433603 1.785356
2010-05-05 07:07:04 51°19.443 2°53.06 10.4411 3.414727 30.444259 1.82018
2010-05-05 07:07:09 51°19.462 2°53.063 10.4308 3.414727 30.444259 1.82018
2010-05-05 07:07:14 51°19.482 2°53.066 10.4235 3.414516 30.444192 1.82018
2010-05-05 07:07:19 51°19.501 2°53.069 10.4167 3.411881 30.41948 1.785356
2010-05-05 07:07:24 51°19.52 2°53.071 10.4151 3.410194 30.404148 1.785356
2010-05-05 07:07:29 51°19.539 2°53.075 10.4102 3.413568 30.438845 1.785356
2010-05-05 07:07:34 51°19.559 2°53.078 10.4036 3.416625 30.470422 1.82018
2010-05-05 07:07:39 51°19.578 2°53.081 10.3977 3.416625 30.470422 1.82018
2010-05-05 07:07:44 51°19.597 2°53.084 10.3972 3.409878 30.405723 1.785356
2010-05-05 07:07:49 51°19.617 2°53.087 10.3942 3.41283 30.439617 1.750532
2010-05-05 07:07:54 51°19.636 2°53.09 10.3924 3.417468 30.490887 1.750532
2010-05-05 07:07:59 51°19.655 2°53.093 10.3877 3.412303 30.44786 1.785356
2010-05-05 07:08:04 51°19.674 2°53.096 10.3895 3.419998 30.528067 1.785356
2010-05-05 07:08:09 51°19.694 2°53.099 10.3869 3.419998 30.528067 1.785356
2010-05-05 07:08:14 51°19.713 2°53.102 10.3865 3.418101 30.514681 1.750532
2010-05-05 07:08:19 51°19.732 2°53.105 10.388 3.415782 30.496442 1.715708
2010-05-05 07:08:25 51°19.755 2°53.109 10.3877 3.421263 30.555454 1.715708
2010-05-05 07:08:29 51°19.771 2°53.111 10.3818 3.421053 30.556069 1.785356
2010-05-05 07:08:34 51°19.79 2°53.114 10.3806 3.418207 30.530579 1.715708
2010-05-05 07:08:39 51°19.809 2°53.117 10.385 3.418207 30.530579 1.715708
2010-05-05 07:08:44 51°19.829 2°53.12 10.3793 3.425586 30.606394 1.715708
2010-05-05 07:08:49 51°19.848 2°53.122 10.378 3.423688 30.590976 1.680884
2010-05-05 07:08:54 51°19.867 2°53.125 10.3769 3.424426 30.599643 1.680884
2010-05-05 07:08:59 51°19.886 2°53.128 10.3712 3.426851 30.622996 1.680884
2010-05-05 07:09:04 51°19.905 2°53.131 10.3752 3.425059 30.605912 1.64606
2010-05-05 07:09:09 51°19.925 2°53.133 10.3755 3.428959 30.647286 1.64606
2010-05-05 07:09:14 51°19.944 2°53.135 10.3656 3.428959 30.647286 1.64606
2010-05-05 07:09:19 51°19.963 2°53.138 10.3638 3.428537 30.645141 1.611236
2010-05-05 07:09:24 51°19.982 2°53.14 10.3559 3.431911 30.679945 1.611236
2010-05-05 07:09:29 51°20.001 2°53.143 10.3597 3.428537 30.649212 1.576412
2010-05-05 07:09:34 51°20.021 2°53.146 10.3485 3.430013 30.663167 1.541588
2010-05-05 07:09:39 51°20.04 2°53.148 10.3462 3.430013 30.663167 1.541588
2010-05-05 07:09:44 51°20.059 2°53.151 10.3344 3.4317 30.68261 1.541588
2010-05-05 07:09:49 51°20.078 2°53.153 10.3313 3.429065 30.657832 1.506764
2010-05-05 07:09:54 51°20.099 2°53.157 10.3355 3.434757 30.716332 1.47194
2010-05-05 07:09:59 51°20.117 2°53.159 10.3259 3.43307 30.70232 1.437116
2010-05-05 07:10:04 51°20.136 2°53.161 10.3208 3.43539 30.728731 1.437116
2010-05-05 07:10:09 51°20.155 2°53.164 10.3151 3.43539 30.728731 1.437116
2010-05-05 07:10:14 51°20.174 2°53.167 10.3163 3.434336 30.720994 1.367467
2010-05-05 07:10:19 51°20.193 2°53.169 10.312 3.431595 30.698559 1.367467
2010-05-05 07:10:25 51°20.216 2°53.172 10.3034 3.432438 30.713053 1.297819
2010-05-05 07:10:29 51°20.231 2°53.175 10.2996 3.440239 30.795954 1.332643
2010-05-05 07:10:34 51°20.25 2°53.177 10.2975 3.434652 30.743203 1.332643
2010-05-05 07:10:39 51°20.27 2°53.18 10.2888 3.434652 30.743203 1.332643
2010-05-05 07:10:44 51°20.29 2°53.18 10.2915 3.443929 30.838066 1.332643
2010-05-05 07:10:49 51°20.309 2°53.182 10.2871 3.440661 30.811753 1.332643
2010-05-05 07:10:54 51°20.328 2°53.181 10.2896 3.444245 30.851469 1.332643
2010-05-05 07:10:59 51°20.348 2°53.182 10.2827 3.446459 30.877579 1.297819
2010-05-05 07:11:04 51°20.367 2°53.181 10.2748 3.447092 30.888663 1.297819
2010-05-05 07:11:09 51°20.387 2°53.181 10.2735 3.446143 30.884713 1.332643
2010-05-05 07:11:14 51°20.406 2°53.18 10.2724 3.446143 30.884713 1.332643
2010-05-05 07:11:19 51°20.425 2°53.18 10.2716 3.447303 30.901044 1.262995
2010-05-05 07:11:24 51°20.445 2°53.179 10.2669 3.441821 30.849272 1.262995
2010-05-05 07:11:29 51°20.464 2°53.179 10.265 3.448041 30.914559 1.262995
2010-05-05 07:11:34 51°20.483 2°53.178 10.2668 3.441505 30.852292 1.193347
2010-05-05 07:11:39 51°20.502 2°53.177 10.2675 3.441505 30.852292 1.193347
2010-05-05 07:11:44 51°20.522 2°53.177 10.2639 3.447619 30.916542 1.262995
2010-05-05 07:11:49 51°20.541 2°53.177 10.2682 3.445827 30.902143 1.193347
2010-05-05 07:11:54 51°20.56 2°53.176 10.2641 3.445405 30.902752 1.262995
2010-05-05 07:11:59 51°20.579 2°53.176 10.268 3.445405 30.902752 1.262995
2010-05-05 07:12:04 51°20.598 2°53.175 10.2707 3.447725 30.930641 1.297819
2010-05-05 07:12:09 51°20.617 2°53.175 10.2764 3.447725 30.930641 1.297819
2010-05-05 07:12:14 51°20.636 2°53.175 10.2799 3.442559 30.881976 1.297819
2010-05-05 07:12:19 51°20.655 2°53.174 10.2813 3.446354 30.919062 1.367467
2010-05-05 07:12:24 51°20.673 2°53.173 10.2849 3.438975 30.845623 1.332643
2010-05-05 07:12:29 51°20.692 2°53.173 10.2743 3.44783 30.935127 1.437116
2010-05-05 07:12:34 51°20.712 2°53.172 10.2658 3.449306 30.94982 1.402292
2010-05-05 07:12:39 51°20.73 2°53.171 10.265 3.451309 30.969073 1.47194
2010-05-05 07:12:44 51°20.749 2°53.17 10.2528 3.451309 30.969073 1.47194
2010-05-05 07:12:49 51°20.769 2°53.169 10.2495 3.446776 30.921198 1.506764
2010-05-05 07:12:54 51°20.788 2°53.169 10.2398 3.447198 30.923334 1.541588
2010-05-05 07:12:59 51°20.807 2°53.168 10.2348 3.45036 30.952062 1.541588
2010-05-05 07:13:04 51°20.826 2°53.168 10.2278 3.449728 30.944392 1.506764
2010-05-05 07:13:09 51°20.845 2°53.168 10.2271 3.450887 30.957996 1.47194
2010-05-05 07:13:14 51°20.863 2°53.167 10.2168 3.450887 30.957996 1.47194
2010-05-05 07:13:19 51°20.882 2°53.168 10.2148 3.446565 30.918413 1.437116
2010-05-05 07:13:24 51°20.901 2°53.167 10.2168 3.450782 30.965201 1.402292
2010-05-05 07:13:29 51°20.92 2°53.166 10.2106 3.452574 30.989931 1.367467
2010-05-05 07:13:34 51°20.939 2°53.166 10.2055 3.45152 30.985631 1.367467
2010-05-05 07:13:39 51°20.958 2°53.165 10.2019 3.45152 30.985631 1.367467
2010-05-05 07:13:44 51°20.977 2°53.165 10.2023 3.45015 30.976801 1.332643
2010-05-05 07:13:49 51°20.996 2°53.164 10.2071 3.44646 30.946929 1.332643
2010-05-05 07:13:53 51°21.011 2°53.164 10.2104 3.444984 30.937731 1.297819
2010-05-05 07:13:59 51°21.033 2°53.163 10.2133 3.450782 30.999646 1.297819
2010-05-05 07:14:04 51°21.053 2°53.163 10.22 3.452153 31.018827 1.297819
2010-05-05 07:14:09 51°21.071 2°53.162 10.2256 3.452153 31.018827 1.297819
2010-05-05 07:14:14 51°21.09 2°53.162 10.234 3.453523 31.035945 1.297819
2010-05-05 07:14:19 51°21.11 2°53.161 10.2454 3.452258 31.026093 1.297819
2010-05-05 07:14:24 51°21.129 2°53.16 10.2532 3.45131 31.018703 1.367467
2010-05-05 07:14:29 51°21.148 2°53.16 10.2619 3.452891 31.034472 1.367467
2010-05-05 07:14:34 51°21.167 2°53.16 10.272 3.450255 31.00681 1.506764
2010-05-05 07:14:39 51°21.186 2°53.16 10.2785 3.441716 30.919617 1.47194
2010-05-05 07:14:44 51°21.205 2°53.16 10.2861 3.441716 30.919617 1.47194
2010-05-05 07:14:49 51°21.225 2°53.16 10.2944 3.450993 31.008647 1.506764
2010-05-05 07:14:54 51°21.244 2°53.159 10.2945 3.45384 31.030811 1.437116
2010-05-05 07:14:59 51°21.263 2°53.159 10.2995 3.453839 31.023908 1.47194
2010-05-05 07:15:04 51°21.282 2°53.158 10.3056 3.452996 31.007226 1.437116
2010-05-05 07:15:09 51°21.301 2°53.158 10.3091 3.452996 31.007226 1.437116
2010-05-05 07:15:14 51°21.32 2°53.157 10.313 3.450887 30.980019 1.437116
2010-05-05 07:15:19 51°21.339 2°53.157 10.3163 3.451414 30.977006 1.437116
2010-05-05 07:15:24 51°21.358 2°53.157 10.32 3.451836 30.975009 1.402292
2010-05-05 07:15:29 51°21.377 2°53.157 10.3246 3.451203 30.959768 1.402292
2010-05-05 07:15:34 51°21.396 2°53.156 10.3323 3.444351 30.885402 1.402292
2010-05-05 07:15:39 51°21.415 2°53.156 10.3289 3.444351 30.885402 1.402292
2010-05-05 07:15:44 51°21.434 2°53.156 10.3333 3.455209 30.989319 1.437116
2010-05-05 07:15:49 51°21.453 2°53.156 10.3365 3.451519 30.947793 1.437116
2010-05-05 07:15:54 51°21.471 2°53.155 10.3422 3.455104 30.979328 1.47194
2010-05-05 07:15:59 51°21.49 2°53.155 10.3432 3.454049 30.964028 1.47194
2010-05-05 07:16:04 51°21.509 2°53.155 10.3479 3.446354 30.884068 1.506764
2010-05-05 07:16:09 51°21.528 2°53.155 10.3538 3.446354 30.884068 1.506764
2010-05-05 07:16:14 51°21.547 2°53.155 10.3558 3.449833 30.91317 1.541588
2010-05-05 07:16:19 51°21.566 2°53.155 10.3584 3.457423 30.984521 1.541588
2010-05-05 07:16:24 51°21.585 2°53.155 10.3622 3.459531 31.003424 1.541588
2010-05-05 07:16:29 51°21.605 2°53.155 10.3647 3.457844 30.983215 1.506764
2010-05-05 07:16:34 51°21.624 2°53.155 10.3678 3.45932 30.99514 1.506764
2010-05-05 07:16:39 51°21.643 2°53.155 10.3695 3.45932 30.991703 1.47194
2010-05-05 07:16:44 51°21.663 2°53.155 10.3725 3.45932 30.991703 1.47194
2010-05-05 07:16:49 51°21.682 2°53.155 10.3738 3.456895 30.963481 1.437116
2010-05-05 07:16:54 51°21.701 2°53.154 10.3762 3.457001 30.961097 1.402292
2010-05-05 07:16:59 51°21.72 2°53.155 10.3779 3.457739 30.964312 1.437116
2010-05-05 07:17:04 51°21.739 2°53.155 10.3795 3.45679 30.95214 1.437116
2010-05-05 07:17:09 51°21.758 2°53.155 10.3813 3.45679 30.95214 1.437116
2010-05-05 07:17:14 51°21.777 2°53.156 10.3822 3.457317 30.953947 1.402292
2010-05-05 07:17:19 51°21.796 2°53.156 10.3849 3.457106 30.949795 1.437116
2010-05-05 07:17:25 51°21.819 2°53.156 10.3846 3.457001 30.944634 1.402292
2010-05-05 07:17:29 51°21.834 2°53.156 10.3856 3.456895 30.942216 1.402292
2010-05-05 07:17:34 51°21.854 2°53.156 10.3865 3.456579 30.936334 1.367467
2010-05-05 07:17:39 51°21.873 2°53.156 10.3865 3.456579 30.936334 1.367467
2010-05-05 07:17:44 51°21.892 2°53.156 10.3887 3.45679 30.937057 1.367467
2010-05-05 07:17:49 51°21.911 2°53.157 10.3883 3.456579 30.931538 1.402292
2010-05-05 07:17:54 51°21.93 2°53.157 10.3877 3.455946 30.924572 1.402292
2010-05-05 07:17:59 51°21.95 2°53.157 10.3891 3.455419 30.918654 1.367467
2010-05-05 07:18:04 51°21.969 2°53.157 10.3872 3.455525 30.917647 1.367467
2010-05-05 07:18:09 51°21.988 2°53.157 10.3889 3.455419 30.915231 1.402292
2010-05-05 07:18:14 51°22.007 2°53.158 10.3878 3.455419 30.915231 1.402292
2010-05-05 07:18:19 51°22.026 2°53.158 10.3885 3.455103 30.911407 1.402292
2010-05-05 07:18:24 51°22.045 2°53.158 10.3872 3.454787 30.906899 1.437116
2010-05-05 07:18:29 51°22.064 2°53.158 10.3885 3.454681 30.905168 1.332643
2010-05-05 07:18:34 51°22.083 2°53.158 10.3892 3.452362 30.882149 1.402292
2010-05-05 07:18:39 51°22.102 2°53.159 10.3894 3.452362 30.882149 1.402292
2010-05-05 07:18:44 51°22.121 2°53.158 10.3877 3.454049 30.897522 1.332643
2010-05-05 07:18:49 51°22.14 2°53.159 10.3873 3.4531 30.888789 1.332643
2010-05-05 07:18:54 51°22.159 2°53.158 10.3874 3.453943 30.897159 1.262995
2010-05-05 07:18:59 51°22.178 2°53.16 10.3885 3.452678 30.884604 1.297819
2010-05-05 07:19:04 51°22.197 2°53.16 10.3859 3.452994 30.887059 1.297819
2010-05-05 07:19:09 51°22.216 2°53.16 10.3852 3.452994 30.887059 1.297819
2010-05-05 07:19:14 51°22.235 2°53.16 10.3853 3.451518 30.872412 1.297819
2010-05-05 07:19:19 51°22.254 2°53.16 10.3841 3.448567 30.84312 1.297819
2010-05-05 07:19:24 51°22.273 2°53.16 10.3835 3.453311 30.890882 1.262995
2010-05-05 07:19:29 51°22.292 2°53.159 10.3844 3.453627 30.893337 1.228171
2010-05-05 07:19:34 51°22.311 2°53.16 10.381 3.4531 30.888105 1.262995
2010-05-05 07:19:39 51°22.331 2°53.161 10.3822 3.4531 30.888105 1.262995
2010-05-05 07:19:44 51°22.35 2°53.161 10.3792 3.453627 30.893337 1.228171
2010-05-05 07:19:49 51°22.369 2°53.162 10.377 3.453521 30.892974 1.228171
2010-05-05 07:19:54 51°22.388 2°53.161 10.3778 3.453943 30.897844 1.228171
2010-05-05 07:19:59 51°22.407 2°53.161 10.378 3.452784 30.887018 1.228171
2010-05-05 07:20:04 51°22.426 2°53.161 10.3787 3.453943 30.899896 1.262995
2010-05-05 07:20:09 51°22.445 2°53.161 10.385 3.453943 30.899896 1.262995
2010-05-05 07:20:14 51°22.464 2°53.161 10.3863 3.454365 30.904082 1.228171
2010-05-05 07:20:19 51°22.484 2°53.161 10.3924 3.453943 30.899896 1.228171
2010-05-05 07:20:24 51°22.503 2°53.161 10.397 3.454787 30.910321 1.228171
2010-05-05 07:20:29 51°22.522 2°53.161 10.4012 3.453627 30.900178 1.228171
2010-05-05 07:20:34 51°22.542 2°53.162 10.4067 3.452994 30.893899 1.228171
2010-05-05 07:20:39 51°22.561 2°53.161 10.4124 3.452994 30.893899 1.228171
2010-05-05 07:20:44 51°22.58 2°53.161 10.4177 3.454576 30.910966 1.332643
2010-05-05 07:20:49 51°22.599 2°53.161 10.4204 3.4531 30.894261 1.437116
2010-05-05 07:20:54 51°22.619 2°53.16 10.4235 3.45447 30.905813 1.541588
2010-05-05 07:20:59 51°22.638 2°53.16 10.4278 3.453943 30.897844 1.680884
2010-05-05 07:21:04 51°22.657 2°53.159 10.4307 3.454997 30.904886 1.82018
2010-05-05 07:21:09 51°22.676 2°53.159 10.4331 3.454997 30.904886 1.82018
2010-05-05 07:21:14 51°22.696 2°53.159 10.4363 3.455103 30.901144 1.924652
2010-05-05 07:21:19 51°22.715 2°53.159 10.4371 3.455103 30.89704 2.098773
2010-05-05 07:21:24 51°22.734 2°53.159 10.4386 3.455524 30.895754 2.203245
2010-05-05 07:21:29 51°22.754 2°53.158 10.4406 3.456789 30.904885 2.342541
2010-05-05 07:21:34 51°22.773 2°53.158 10.4433 3.456578 30.899376 2.481837
2010-05-05 07:21:39 51°22.792 2°53.158 10.4407 3.457949 30.909551 2.516661
2010-05-05 07:21:44 51°22.812 2°53.157 10.44 3.457949 30.909551 2.516661
2010-05-05 07:21:49 51°22.831 2°53.158 10.4396 3.458476 30.910677 2.655957
2010-05-05 07:21:54 51°22.851 2°53.157 10.4373 3.457843 30.90167 2.76043
2010-05-05 07:21:59 51°22.87 2°53.157 10.4402 3.459003 30.910435 2.899726
2010-05-05 07:22:04 51°22.889 2°53.157 10.4375 3.459846 30.916747 2.899726
2010-05-05 07:22:09 51°22.908 2°53.156 10.4361 3.45953 30.911561 2.93455
2010-05-05 07:22:14 51°22.929 2°53.154 10.4346 3.45953 30.911561 2.93455
2010-05-05 07:22:19 51°22.948 2°53.154 10.4344 3.461217 30.926917 2.93455
2010-05-05 07:22:24 51°22.967 2°53.154 10.4365 3.459003 30.902919 3.004198
2010-05-05 07:22:29 51°22.986 2°53.153 10.4347 3.461744 30.93146 3.004198
2010-05-05 07:22:34 51°23.005 2°53.154 10.4337 3.459952 30.913692 3.004198
2010-05-05 07:22:39 51°23.024 2°53.154 10.4339 3.459952 30.913692 3.004198
2010-05-05 07:22:44 51°23.043 2°53.154 10.4304 3.461744 30.932143 3.10867
2010-05-05 07:22:49 51°23.062 2°53.154 10.4329 3.46322 30.946777 3.073846
2010-05-05 07:22:54 51°23.081 2°53.154 10.4288 3.463114 30.947785 3.178318
2010-05-05 07:22:59 51°23.101 2°53.154 10.4286 3.464168 30.957554 3.143494
2010-05-05 07:23:04 51°23.12 2°53.154 10.4265 3.462798 30.943964 3.178318
2010-05-05 07:23:09 51°23.139 2°53.154 10.4241 3.462798 30.943964 3.178318
2010-05-05 07:23:14 51°23.158 2°53.154 10.4235 3.462587 30.94461 3.213142
2010-05-05 07:23:19 51°23.178 2°53.154 10.4243 3.46459 30.963105 3.213142
2010-05-05 07:23:24 51°23.197 2°53.154 10.4221 3.465117 30.969017 3.213142
2010-05-05 07:23:29 51°23.216 2°53.154 10.4202 3.464696 30.966204 3.28279
2010-05-05 07:23:34 51°23.235 2°53.156 10.4218 3.465961 30.979436 3.28279
2010-05-05 07:23:39 51°23.255 2°53.155 10.4195 3.465961 30.979436 3.28279
2010-05-05 07:23:44 51°23.274 2°53.156 10.4153 3.466488 30.986035 3.317614
2010-05-05 07:23:49 51°23.293 2°53.155 10.4165 3.46575 30.980085 3.317614
2010-05-05 07:23:54 51°23.313 2°53.155 10.4152 3.467331 30.997143 3.317614
2010-05-05 07:23:59 51°23.332 2°53.155 10.4119 3.46712 30.997107 3.28279
2010-05-05 07:24:04 51°23.351 2°53.155 10.4095 3.467226 30.998839 3.317614
2010-05-05 07:24:09 51°23.371 2°53.155 10.4077 3.467226 30.998839 3.317614
2010-05-05 07:24:14 51°23.39 2°53.155 10.4076 3.46712 30.997107 3.352439
2010-05-05 07:24:19 51°23.409 2°53.155 10.4056 3.468385 31.011716 3.422087
2010-05-05 07:24:24 51°23.429 2°53.152 10.4032 3.467858 31.007858 3.491735
2010-05-05 07:24:29 51°23.448 2°53.152 10.403 3.468069 31.012008 3.596207
2010-05-05 07:24:34 51°23.468 2°53.153 10.4042 3.467648 31.008509 3.700679
2010-05-05 07:24:39 51°23.487 2°53.153 10.3983 3.467648 31.008509 3.700679
2010-05-05 07:24:44 51°23.507 2°53.153 10.3996 3.468807 31.022762 3.770327
2010-05-05 07:24:49 51°23.526 2°53.154 10.3968 3.468913 31.024495 3.839975
2010-05-05 07:24:54 51°23.545 2°53.154 10.398 3.469124 31.028647 3.839975
2010-05-05 07:24:59 51°23.565 2°53.154 10.3946 3.469334 31.032113 3.874799
2010-05-05 07:25:04 51°23.584 2°53.154 10.3925 3.468386 31.024068 3.805151
2010-05-05 07:25:09 51°23.604 2°53.154 10.3935 3.468386 31.024068 3.805151
2010-05-05 07:25:14 51°23.623 2°53.154 10.3895 3.46459 30.98777 3.735503
2010-05-05 07:25:19 51°23.643 2°53.151 10.3855 3.46828 31.025768 3.665855
2010-05-05 07:25:24 51°23.662 2°53.151 10.3836 3.465856 31.003757 3.596207
2010-05-05 07:25:29 51°23.681 2°53.151 10.3838 3.469229 31.037248 3.491735
2010-05-05 07:25:34 51°23.701 2°53.151 10.3789 3.466699 31.013502 3.387263
2010-05-05 07:25:39 51°23.72 2°53.151 10.3806 3.470494 31.053244 3.213142
2010-05-05 07:25:44 51°23.74 2°53.152 10.3757 3.470494 31.053244 3.213142
2010-05-05 07:25:49 51°23.759 2°53.151 10.3769 3.470705 31.055338 3.143494
2010-05-05 07:25:54 51°23.779 2°53.152 10.3731 3.469335 31.043791 2.969374
2010-05-05 07:25:59 51°23.799 2°53.152 10.3723 3.468491 31.038165 2.899726
2010-05-05 07:26:04 51°23.818 2°53.152 10.3679 3.471021 31.064667 2.864902
2010-05-05 07:26:09 51°23.837 2°53.152 10.3667 3.471021 31.064667 2.864902
2010-05-05 07:26:14 51°23.857 2°53.152 10.359 3.470178 31.058354 2.899726
2010-05-05 07:26:19 51°23.876 2°53.152 10.3533 3.472181 31.080314 2.899726
2010-05-05 07:26:25 51°23.9 2°53.151 10.3452 3.471338 31.074689 2.969374
2010-05-05 07:26:29 51°23.915 2°53.151 10.3446 3.473235 31.093541 2.969374
2010-05-05 07:26:34 51°23.934 2°53.151 10.3336 3.472708 31.089681 3.039022
2010-05-05 07:26:39 51°23.954 2°53.151 10.326 3.472708 31.089681 3.039022
2010-05-05 07:26:44 51°23.973 2°53.15 10.3239 3.473552 31.100816 3.004198
2010-05-05 07:26:49 51°23.993 2°53.15 10.323 3.473446 31.102524 3.004198
2010-05-05 07:26:54 51°24.012 2°53.147 10.3135 3.472076 31.09166 2.969374
2010-05-05 07:26:59 51°24.031 2°53.146 10.3089 3.472708 31.10277 2.93455
2010-05-05 07:27:04 51°24.051 2°53.146 10.3034 3.474922 31.130985 2.93455
2010-05-05 07:27:09 51°24.07 2°53.146 10.3013 3.473236 31.119042 3.143494
2010-05-05 07:27:14 51°24.09 2°53.146 10.2968 3.473236 31.119042 3.143494
2010-05-05 07:27:19 51°24.11 2°53.145 10.2949 3.47292 31.122106 3.422087
2010-05-05 07:27:24 51°24.129 2°53.145 10.2932 3.471444 31.112256 3.700679
2010-05-05 07:27:29 51°24.148 2°53.145 10.2907 3.476293 31.163952 3.909623
2010-05-05 07:27:34 51°24.168 2°53.144 10.2855 3.473763 31.145687 4.014096
2010-05-05 07:27:39 51°24.187 2°53.144 10.2844 3.473763 31.145687 4.014096
2010-05-05 07:27:44 51°24.207 2°53.144 10.2808 3.477769 31.190397 4.04892
2010-05-05 07:27:49 51°24.227 2°53.144 10.2808 3.476926 31.186154 4.014096
2010-05-05 07:27:54 51°24.246 2°53.143 10.2755 3.474923 31.170365 4.04892
2010-05-05 07:27:59 51°24.265 2°53.143 10.2746 3.478613 31.211259 4.014096
2010-05-05 07:28:04 51°24.285 2°53.143 10.2716 3.478086 31.20878 4.014096
2010-05-05 07:28:09 51°24.304 2°53.142 10.2664 3.478086 31.20878 4.014096
2010-05-05 07:28:14 51°24.324 2°53.142 10.2621 3.47777 31.209095 4.014096
2010-05-05 07:28:19 51°24.343 2°53.141 10.2632 3.479246 31.227263 3.944447
2010-05-05 07:28:24 51°24.362 2°53.14 10.2565 3.478086 31.219177 3.909623
2010-05-05 07:28:29 51°24.381 2°53.14 10.2534 3.475345 31.194642 3.839975
2010-05-05 07:28:34 51°24.401 2°53.14 10.2502 3.478402 31.227183 3.805151
2010-05-05 07:28:39 51°24.42 2°53.14 10.2473 3.478402 31.227183 3.805151
2010-05-05 07:28:44 51°24.44 2°53.139 10.2517 3.478191 31.227856 3.805151
2010-05-05 07:28:49 51°24.459 2°53.139 10.2413 3.476821 31.217667 3.770327
2010-05-05 07:28:54 51°24.478 2°53.139 10.2422 3.479562 31.247762 3.735503
2010-05-05 07:28:59 51°24.498 2°53.138 10.2446 3.477875 31.233725 3.665855
2010-05-05 07:29:04 51°24.517 2°53.137 10.2373 3.478086 31.237215 3.665855
2010-05-05 07:29:09 51°24.536 2°53.136 10.2348 3.477664 31.237871 3.700679
2010-05-05 07:29:14 51°24.555 2°53.136 10.2321 3.477664 31.237871 3.700679
2010-05-05 07:29:19 51°24.575 2°53.135 10.2327 3.477665 31.240649 3.805151
2010-05-05 07:29:24 51°24.594 2°53.135 10.231 3.478719 31.253245 3.909623
2010-05-05 07:29:29 51°24.613 2°53.133 10.2231 3.480933 31.28019 4.014096
2010-05-05 07:29:34 51°24.633 2°53.133 10.2264 3.4803 31.275967 4.014096
2010-05-05 07:29:39 51°24.652 2°53.132 10.2221 3.4803 31.275967 4.014096
2010-05-05 07:29:44 51°24.671 2°53.132 10.2184 3.480511 31.279462 4.153392
2010-05-05 07:29:49 51°24.69 2°53.131 10.2191 3.480827 31.284704 4.292688
2010-05-05 07:29:54 51°24.709 2°53.13 10.2122 3.480617 31.284688 4.466808
2010-05-05 07:29:59 51°24.729 2°53.129 10.2101 3.475029 31.231034 4.640929
2010-05-05 07:30:04 51°24.748 2°53.129 10.2117 3.480933 31.291323 4.780225
2010-05-05 07:30:09 51°24.767 2°53.128 10.209 3.480933 31.291323 4.780225
2010-05-05 07:30:14 51°24.786 2°53.127 10.2068 3.482303 31.30848 4.815049
2010-05-05 07:30:19 51°24.806 2°53.126 10.203 3.481987 31.307414 4.919521
2010-05-05 07:30:24 51°24.825 2°53.125 10.2007 3.478719 31.277583 4.849873
2010-05-05 07:30:29 51°24.844 2°53.124 10.1987 3.479563 31.289481 4.884697
2010-05-05 07:30:34 51°24.864 2°53.123 10.1961 3.482304 31.318932 4.815049
2010-05-05 07:30:39 51°24.883 2°53.123 10.1975 3.482304 31.318932 4.815049
2010-05-05 07:30:44 51°24.902 2°53.122 10.1964 3.480933 31.308038 4.815049
2010-05-05 07:30:49 51°24.921 2°53.121 10.1931 3.481987 31.320654 4.815049
2010-05-05 07:30:54 51°24.94 2°53.12 10.1931 3.476822 31.271867 4.815049
2010-05-05 07:30:59 51°24.959 2°53.118 10.1925 3.480512 31.3101 4.815049
2010-05-05 07:31:04 51°24.978 2°53.117 10.1904 3.48009 31.309374 4.954345
2010-05-05 07:31:09 51°24.998 2°53.116 10.1917 3.480617 31.316033 4.989169
2010-05-05 07:31:14 51°25.017 2°53.115 10.1874 3.480617 31.316033 4.989169
2010-05-05 07:31:19 51°25.036 2°53.114 10.1827 3.48146 31.326549 5.023993
2010-05-05 07:31:24 51°25.055 2°53.114 10.1833 3.479985 31.312505 5.093641
2010-05-05 07:31:29 51°25.075 2°53.114 10.1833 3.481144 31.325482 5.128465
2010-05-05 07:31:34 51°25.094 2°53.113 10.1818 3.481777 31.333894 5.093641
2010-05-05 07:31:39 51°25.113 2°53.112 10.1812 3.481777 31.333894 5.093641
2010-05-05 07:31:44 51°25.132 2°53.111 10.1786 3.481461 31.33213 5.058817
2010-05-05 07:31:49 51°25.151 2°53.109 10.1776 3.48125 31.330024 4.989169
2010-05-05 07:31:54 51°25.171 2°53.109 10.1747 3.480512 31.324048 4.954345
2010-05-05 07:31:59 51°25.19 2°53.108 10.175 3.481988 31.340188 4.849873
2010-05-05 07:32:04 51°25.209 2°53.107 10.1746 3.479247 31.314898 4.849873
2010-05-05 07:32:09 51°25.228 2°53.106 10.1744 3.479247 31.314898 4.849873
2010-05-05 07:32:14 51°25.247 2°53.105 10.1745 3.473554 31.260121 4.815049
2010-05-05 07:32:19 51°25.266 2°53.103 10.1758 3.475135 31.276613 4.780225
2010-05-05 07:32:24 51°25.286 2°53.102 10.175 3.479985 31.327853 4.745401
2010-05-05 07:32:29 51°25.305 2°53.101 10.175 3.480196 31.330658 4.745401
2010-05-05 07:32:34 51°25.324 2°53.1 10.1734 3.481144 31.342235 4.710577
2010-05-05 07:32:39 51°25.343 2°53.099 10.1725 3.475452 31.285349 4.710577
2010-05-05 07:32:44 51°25.362 2°53.099 10.1739 3.475452 31.285349 4.710577
2010-05-05 07:32:49 51°25.381 2°53.097 10.1758 3.481461 31.346793 4.640929
2010-05-05 07:32:54 51°25.4 2°53.097 10.1749 3.477349 31.306402 4.640929
2010-05-05 07:32:59 51°25.419 2°53.095 10.1703 3.48262 31.359082 4.606104
2010-05-05 07:33:04 51°25.438 2°53.094 10.1729 3.478193 31.31483 4.606104
2010-05-05 07:33:09 51°25.458 2°53.094 10.176 3.478193 31.31483 4.606104
2010-05-05 07:33:14 51°25.477 2°53.093 10.1731 3.480512 31.338009 4.57128
2010-05-05 07:33:19 51°25.496 2°53.092 10.1733 3.479458 31.327472 4.536456
2010-05-05 07:33:24 51°25.515 2°53.091 10.1717 3.482726 31.360835 4.536456
2010-05-05 07:33:29 51°25.534 2°53.089 10.1716 3.481039 31.344674 4.466808
2010-05-05 07:33:34 51°25.553 2°53.088 10.1734 3.483991 31.374179 4.362336
2010-05-05 07:33:39 51°25.572 2°53.088 10.1731 3.483991 31.374179 4.362336
2010-05-05 07:33:44 51°25.592 2°53.086 10.1737 3.479774 31.33203 4.39716
2010-05-05 07:33:49 51°25.611 2°53.085 10.1733 3.479985 31.334835 4.362336
2010-05-05 07:33:54 51°25.631 2°53.084 10.1728 3.484307 31.377341 4.327512
2010-05-05 07:33:59 51°25.65 2°53.084 10.172 3.484096 31.374534 4.362336
2010-05-05 07:34:04 51°25.669 2°53.083 10.1737 3.477771 31.312709 4.327512
2010-05-05 07:34:09 51°25.688 2°53.082 10.1753 3.48378 31.372771 4.39716
2010-05-05 07:34:14 51°25.708 2°53.082 10.1731 3.48378 31.372771 4.39716
2010-05-05 07:34:19 51°25.727 2°53.081 10.1731 3.484729 31.382955 4.362336
2010-05-05 07:34:24 51°25.746 2°53.08 10.1702 3.482515 31.359426 4.39716
2010-05-05 07:34:29 51°25.765 2°53.079 10.1685 3.485889 31.393849 4.466808
2010-05-05 07:34:34 51°25.785 2°53.078 10.1654 3.485256 31.388225 4.431984
2010-05-05 07:34:39 51°25.804 2°53.077 10.1659 3.477876 31.314461 4.431984
2010-05-05 07:34:44 51°25.823 2°53.076 10.162 3.477876 31.314461 4.431984
2010-05-05 07:34:49 51°25.842 2°53.076 10.1626 3.485783 31.393495 4.39716
2010-05-05 07:34:54 51°25.862 2°53.075 10.1568 3.485361 31.389279 4.39716
2010-05-05 07:34:59 51°25.881 2°53.074 10.1573 3.48262 31.361179 4.327512
2010-05-05 07:35:04 51°25.9 2°53.073 10.1601 3.486732 31.402981 4.327512
2010-05-05 07:35:09 51°25.919 2°53.072 10.1525 3.486732 31.402981 4.327512
2010-05-05 07:35:14 51°25.939 2°53.072 10.1501 3.483886 31.376622 4.292688
2010-05-05 07:35:19 51°25.958 2°53.071 10.1525 3.484518 31.385045 4.292688
2010-05-05 07:35:24 51°25.977 2°53.07 10.1467 3.484834 31.390306 4.292688
2010-05-05 07:35:29 51°25.996 2°53.069 10.1465 3.485678 31.400139 4.327512
2010-05-05 07:35:34 51°26.016 2°53.068 10.1487 3.483675 31.381509 4.501632
2010-05-05 07:35:39 51°26.035 2°53.067 10.1456 3.483675 31.381509 4.501632
2010-05-05 07:35:44 51°26.054 2°53.066 10.1409 3.484202 31.38818 4.57128
2010-05-05 07:35:49 51°26.073 2°53.065 10.1405 3.486416 31.411721 4.675753
2010-05-05 07:35:54 51°26.093 2°53.064 10.1355 3.479458 31.344237 4.675753
2010-05-05 07:35:59 51°26.112 2°53.064 10.1361 3.48747 31.425068 4.745401
2010-05-05 07:36:04 51°26.131 2°53.065 10.1383 3.48494 31.402561 4.710577
2010-05-05 07:36:09 51°26.15 2°53.067 10.1293 3.488419 31.437364 4.675753
2010-05-05 07:36:14 51°26.17 2°53.069 10.1285 3.488419 31.437364 4.675753
2010-05-05 07:36:19 51°26.189 2°53.072 10.1247 3.487259 31.427865 4.675753
2010-05-05 07:36:24 51°26.208 2°53.075 10.1281 3.48378 31.395863 4.710577
2010-05-05 07:36:29 51°26.227 2°53.079 10.119 3.487787 31.437346 4.710577
2010-05-05 07:36:34 51°26.246 2°53.082 10.1226 3.489473 31.454926 4.815049
2010-05-05 07:36:39 51°26.265 2°53.087 10.1126 3.489473 31.454926 4.815049
2010-05-05 07:36:44 51°26.284 2°53.091 10.111 3.489263 31.457027 4.780225
2010-05-05 07:36:49 51°26.304 2°53.096 10.1125 3.48979 31.462302 4.780225
2010-05-05 07:36:54 51°26.323 2°53.101 10.1091 3.483781 31.405671 4.710577
2010-05-05 07:36:59 51°26.342 2°53.106 10.1099 3.488841 31.458421 4.710577
2010-05-05 07:37:04 51°26.361 2°53.111 10.1057 3.487365 31.446455 4.640929
2010-05-05 07:37:09 51°26.38 2°53.115 10.1043 3.487365 31.446455 4.640929
2010-05-05 07:37:14 51°26.398 2°53.121 10.1022 3.484097 31.415145 4.57128
2010-05-05 07:37:18 51°26.414 2°53.124 10.1025 3.482094 31.3979 4.466808
2010-05-05 07:37:24 51°26.437 2°53.13 10.0977 3.490633 31.487605 4.431984
2010-05-05 07:37:29 51°26.456 2°53.134 10.0984 3.490212 31.485491 4.327512
2010-05-05 07:37:34 51°26.475 2°53.139 10.0989 3.487681 31.462963 4.292688
2010-05-05 07:37:39 51°26.494 2°53.144 10.0949 3.487681 31.462963 4.292688
2010-05-05 07:37:44 51°26.513 2°53.149 10.0912 3.489052 31.478797 4.22304
2010-05-05 07:37:49 51°26.532 2°53.153 10.0893 3.484624 31.435857 4.22304
2010-05-05 07:37:54 51°26.551 2°53.157 10.0962 3.489579 31.487593 4.188216
2010-05-05 07:37:59 51°26.57 2°53.162 10.0859 3.48104 31.404172 4.188216
2010-05-05 07:38:04 51°26.589 2°53.166 10.0923 3.486627 31.461538 4.22304
2010-05-05 07:38:09 51°26.608 2°53.171 10.0833 3.486627 31.461538 4.22304
2010-05-05 07:38:14 51°26.627 2°53.174 10.084 3.481567 31.411555 4.22304
2010-05-05 07:38:19 51°26.646 2°53.179 10.0798 3.488314 31.481248 4.188216
2010-05-05 07:38:24 51°26.665 2°53.183 10.0778 3.488841 31.488639 4.188216
2010-05-05 07:38:29 51°26.684 2°53.188 10.0753 3.488209 31.483708 4.153392
2010-05-05 07:38:34 51°26.703 2°53.192 10.0751 3.487576 31.478074 4.118568
2010-05-05 07:38:39 51°26.722 2°53.196 10.0704 3.487576 31.478074 4.118568
2010-05-05 07:38:44 51°26.741 2°53.201 10.0686 3.484835 31.452719 4.153392
2010-05-05 07:38:49 51°26.76 2°53.205 10.059 3.483043 31.437573 4.04892
2010-05-05 07:38:54 51°26.779 2°53.21 10.0563 3.486206 31.47067 4.014096
2010-05-05 07:38:59 51°26.799 2°53.214 10.0572 3.48726 31.482642 3.944447
2010-05-05 07:39:04 51°26.818 2°53.219 10.0498 3.483676 31.449532 3.874799
2010-05-05 07:39:09 51°26.837 2°53.223 10.0511 3.483676 31.449532 3.874799
2010-05-05 07:39:14 51°26.856 2°53.227 10.0525 3.483781 31.451995 3.805151
2010-05-05 07:39:19 51°26.875 2°53.232 10.0444 3.48726 31.488975 3.665855
2010-05-05 07:39:24 51°26.895 2°53.235 10.0408 3.487577 31.495666 3.561383
2010-05-05 07:39:29 51°26.914 2°53.24 10.0386 3.486311 31.487207 3.491735
2010-05-05 07:39:34 51°26.933 2°53.244 10.0374 3.488947 31.517862 3.422087
2010-05-05 07:39:39 51°26.952 2°53.248 10.0365 3.485468 31.485791 3.352439
2010-05-05 07:39:44 51°26.971 2°53.253 10.0414 3.485468 31.485791 3.352439
2010-05-05 07:39:49 51°26.991 2°53.257 10.0315 3.486101 31.495656 3.28279
2010-05-05 07:39:54 51°27.01 2°53.261 10.0299 3.480092 31.437504 3.247966
2010-05-05 07:39:59 51°27.029 2°53.265 10.0274 3.482727 31.46675 3.178318
2010-05-05 07:40:04 51°27.048 2°53.269 10.0302 3.484625 31.487897 3.143494
2010-05-05 07:40:09 51°27.067 2°53.273 10.0288 3.484625 31.487897 3.143494
2010-05-05 07:40:14 51°27.086 2°53.277 10.0283 3.485257 31.49847 3.073846
2010-05-05 07:40:19 51°27.105 2°53.282 10.0262 3.482411 31.472027 3.10867
2010-05-05 07:40:24 51°27.125 2°53.286 10.0267 3.484203 31.490008 3.039022
2010-05-05 07:40:29 51°27.144 2°53.29 10.0245 3.483887 31.488244 3.004198
2010-05-05 07:40:34 51°27.163 2°53.295 10.0235 3.489158 31.544668 3.039022
2010-05-05 07:40:39 51°27.182 2°53.299 10.0262 3.489158 31.544668 3.039022
2010-05-05 07:40:44 51°27.201 2°53.303 10.0216 3.488631 31.540789 2.969374
2010-05-05 07:40:49 51°27.221 2°53.308 10.027 3.483782 31.492824 2.969374
2010-05-05 07:40:54 51°27.24 2°53.313 10.0257 3.483255 31.488944 2.899726
2010-05-05 07:40:59 51°27.259 2°53.317 10.0257 3.485047 31.508341 2.93455
2010-05-05 07:41:04 51°27.279 2°53.322 10.0226 3.485152 31.510105 2.93455
2010-05-05 07:41:09 51°27.299 2°53.327 10.0276 3.485152 31.510105 2.93455
2010-05-05 07:41:14 51°27.318 2°53.331 10.0287 3.490002 31.558078 2.969374
2010-05-05 07:41:19 51°27.337 2°53.336 10.0312 3.484836 31.508341 2.969374
2010-05-05 07:41:24 51°27.357 2°53.34 10.0289 3.487682 31.538325 2.93455
2010-05-05 07:41:29 51°27.376 2°53.345 10.0305 3.491794 31.578191 3.004198
2010-05-05 07:41:34 51°27.396 2°53.349 10.0275 3.482833 31.488237 2.969374
2010-05-05 07:41:39 51°27.416 2°53.354 10.031 3.48958 31.557377 2.969374
2010-05-05 07:41:44 51°27.435 2°53.359 10.03 3.48958 31.557377 2.969374
2010-05-05 07:41:49 51°27.454 2°53.364 10.0332 3.487999 31.540794 2.93455
2010-05-05 07:41:54 51°27.474 2°53.368 10.0344 3.490529 31.564076 2.93455
2010-05-05 07:41:59 51°27.494 2°53.373 10.0325 3.490424 31.563017 2.969374
2010-05-05 07:42:04 51°27.513 2°53.377 10.0351 3.49074 31.565486 2.969374
2010-05-05 07:42:09 51°27.533 2°53.382 10.0385 3.49074 31.565486 2.969374
2010-05-05 07:42:14 51°27.552 2°53.386 10.038 3.490951 31.567603 3.004198
2010-05-05 07:42:19 51°27.572 2°53.39 10.0371 3.488315 31.541145 3.004198
2010-05-05 07:42:24 51°27.591 2°53.394 10.0358 3.487366 31.530915 3.004198
2010-05-05 07:42:29 51°27.611 2°53.399 10.0346 3.491899 31.575715 3.004198
2010-05-05 07:42:34 51°27.63 2°53.404 10.0359 3.490634 31.561601 2.969374
2010-05-05 07:42:39 51°27.65 2°53.408 10.0386 3.490634 31.561601 2.969374
2010-05-05 07:42:44 51°27.669 2°53.413 10.0375 3.490107 31.555604 3.039022
2010-05-05 07:42:49 51°27.689 2°53.417 10.0369 3.482095 31.473784 2.969374
2010-05-05 07:42:54 51°27.708 2°53.421 10.038 3.489791 31.549604 2.969374
2010-05-05 07:42:59 51°27.728 2°53.426 10.038 3.487999 31.532323 2.899726
2010-05-05 07:43:04 51°27.747 2°53.431 10.0323 3.483676 31.488242 2.899726
2010-05-05 07:43:09 51°27.767 2°53.436 10.0325 3.483676 31.488242 2.899726
2010-05-05 07:43:14 51°27.786 2°53.44 10.0297 3.483676 31.488242 2.899726
2010-05-05 07:43:19 51°27.806 2°53.445 10.0294 3.487471 31.526327 2.864902
2010-05-05 07:43:24 51°27.825 2°53.45 10.0247 3.483254 31.483306 2.830078
2010-05-05 07:43:29 51°27.845 2°53.454 10.0241 3.483465 31.484717 2.76043
2010-05-05 07:43:34 51°27.865 2°53.459 10.0192 3.486417 31.514337 2.690782
2010-05-05 07:43:39 51°27.884 2°53.463 10.0197 3.486417 31.514337 2.690782
2010-05-05 07:43:44 51°27.904 2°53.468 10.0187 3.486312 31.513984 2.621133
2010-05-05 07:43:49 51°27.923 2°53.472 10.0158 3.491267 31.565831 2.586309